DW8690 Weather Reports


Display with metric or nautical units.
time (UTC)temp
F
wind
direction
speed
MPH
gust
MPH
rain 1hr
in
rain 24hr
in
rain mn
in
humidity
%
barometer
mb
20260904123205 62 238 2.0 6.0 0.00 0.00 0.00 39 1008.5
20260904123105 62 214 2.0 6.0 0.00 0.00 0.00 39 1008.5
20260904123005 62 177 2.0 6.0 0.00 0.00 0.00 39 1008.4
20260904122905 62 149 2.0 6.0 0.00 0.00 0.00 39 1008.4
20260904122805 62 139 2.0 6.0 0.00 0.00 0.00 39 1008.6
20260904122704 62 110 2.0 4.0 0.00 0.00 0.00 40 1008.5
20260904122605 62 105 2.0 4.0 0.00 0.00 0.00 39 1008.5
20260904122505 62 119 1.0 4.0 0.00 0.00 0.00 39 1008.5
20260904122405 62 132 2.0 4.0 0.00 0.00 0.00 39 1008.4
20260904122306 62 132 2.0 4.0 0.00 0.00 0.00 39 1008.4
20260904122205 62 187 1.0 6.0 0.00 0.00 0.00 39 1008.5
20260904122105 62 218 1.0 7.0 0.00 0.00 0.00 39 1008.4
20260904122005 63 227 1.0 8.0 0.00 0.00 0.00 38 1008.5
20260904121905 63 229 2.0 8.0 0.00 0.00 0.00 38 1008.4
20260904121805 63 0 0.0 8.0 0.00 0.00 0.00 38 1008.5
20260904121704 63 233 1.0 8.0 0.00 0.00 0.00 38 1008.5
20260904121605 63 0 0.0 8.0 0.00 0.00 0.00 38 1008.6
20260904121505 63 250 1.0 8.0 0.00 0.00 0.00 38 1008.5
20260904121405 63 0 0.0 8.0 0.00 0.00 0.00 38 1008.5
20260904121305 63 258 1.0 8.0 0.00 0.00 0.00 38 1008.5
20260904121205 63 263 4.0 8.0 0.00 0.00 0.00 38 1008.6
20260904121105 63 268 4.0 8.0 0.00 0.00 0.00 38 1008.5
20260904121005 63 275 4.0 8.0 0.00 0.00 0.00 38 1008.6
20260904120905 63 277 4.0 8.0 0.00 0.00 0.00 38 1008.5
20260904120805 63 281 3.0 8.0 0.00 0.00 0.00 38 1008.5
20260904120705 63 283 5.0 8.0 0.00 0.00 0.00 38 1008.4
20260904120505 63 277 5.0 8.0 0.00 0.00 0.00 38 1008.5
20260904120405 63 272 5.0 8.0 0.00 0.00 0.00 38 1008.4
20260904120304 63 271 5.0 8.0 0.00 0.00 0.00 38 1008.4
20260904120205 63 275 5.0 11.0 0.00 0.00 0.00 38 1008.6
20260904120105 63 277 5.0 11.0 0.00 0.00 0.00 38 1008.5
20260904120005 63 268 4.0 11.0 0.00 0.00 0.00 38 1008.4
20260904115904 63 267 2.0 11.0 0.00 0.00 0.00 38 1008.4
20260904115805 63 257 2.0 11.0 0.00 0.00 0.00 38 1008.4
20260904115705 63 255 1.0 11.0 0.00 0.00 0.00 38 1008.5
20260904115605 63 249 2.0 11.0 0.00 0.00 0.00 38 1008.4
20260904115504 63 0 0.0 11.0 0.00 0.00 0.00 38 1008.5
20260904115405 63 244 2.0 11.0 0.00 0.00 0.00 38 1008.4
20260904115306 63 247 4.0 11.0 0.00 0.00 0.00 38 1008.4
20260904115205 63 231 5.0 11.0 0.00 0.00 0.00 38 1008.4
20260904115105 63 214 2.0 8.0 0.00 0.00 0.00 38 1008.3
20260904115005 63 215 3.0 8.0 0.00 0.00 0.00 38 1008.5
20260904114905 63 232 3.0 8.0 0.00 0.00 0.00 38 1008.4
20260904114805 62 242 2.0 7.0 0.00 0.00 0.00 38 1008.4
20260904114705 62 242 3.0 7.0 0.00 0.00 0.00 38 1008.4
20260904114605 62 247 3.0 7.0 0.00 0.00 0.00 39 1008.4
20260904114505 62 242 3.0 7.0 0.00 0.00 0.00 39 1008.3
20260904114405 62 225 4.0 7.0 0.00 0.00 0.00 39 1008.4
20260904114305 62 174 2.0 7.0 0.00 0.00 0.00 39 1008.3
20260904114204 62 217 2.0 5.0 0.00 0.00 0.00 39 1008.3
20260904114105 62 202 1.0 5.0 0.00 0.00 0.00 39 1008.4
20260904114005 62 148 2.0 6.0 0.00 0.00 0.00 39 1008.3
20260904113905 62 138 2.0 6.0 0.00 0.00 0.00 39 1008.3
20260904113804 62 153 2.0 6.0 0.00 0.00 0.00 39 1008.3
20260904113705 62 155 1.0 6.0 0.00 0.00 0.00 39 1008.3
20260904113605 62 160 1.0 6.0 0.00 0.00 0.00 39 1008.4
20260904113505 62 182 2.0 6.0 0.00 0.00 0.00 40 1008.4
20260904113405 62 160 1.0 6.0 0.00 0.00 0.00 40 1008.3
20260904113305 62 164 2.0 6.0 0.00 0.00 0.00 40 1008.3
20260904113205 62 155 3.0 6.0 0.00 0.00 0.00 39 1008.3
20260904113105 62 160 2.0 6.0 0.00 0.00 0.00 40 1008.3
20260904113005 62 176 3.0 6.0 0.00 0.00 0.00 40 1008.3
20260904112905 62 174 1.0 5.0 0.00 0.00 0.00 40 1008.3
20260904112805 62 168 2.0 5.0 0.00 0.00 0.00 40 1008.4
20260904112705 62 163 2.0 5.0 0.00 0.00 0.00 40 1008.3
20260904112205 63 198 2.0 6.0 0.00 0.00 0.00 39 1008.3
20260904112105 63 211 2.0 6.0 0.00 0.00 0.00 39 1008.2
20260904112005 63 224 1.0 6.0 0.00 0.00 0.00 38 1008.3
20260904111904 63 0 0.0 6.0 0.00 0.00 0.00 38 1008.3
20260904111805 63 0 0.0 6.0 0.00 0.00 0.00 38 1008.3
20260904111705 63 242 1.0 9.0 0.00 0.00 0.00 38 1008.3
20260904111604 63 242 1.0 9.0 0.00 0.00 0.00 38 1008.3
20260904111504 63 242 1.0 9.0 0.00 0.00 0.00 38 1008.3
20260904111405 63 240 2.0 9.0 0.00 0.00 0.00 38 1008.3
20260904111305 63 245 3.0 9.0 0.00 0.00 0.00 38 1008.3
20260904111205 63 269 2.0 9.0 0.00 0.00 0.00 38 1008.3
20260904111104 63 295 2.0 9.0 0.00 0.00 0.00 38 1008.4
20260904111005 63 341 3.0 9.0 0.00 0.00 0.00 38 1008.3
20260904110905 63 15 3.0 9.0 0.00 0.00 0.00 38 1008.3
20260904110805 63 14 5.0 9.0 0.00 0.00 0.00 38 1008.3
20260904110705 63 44 1.0 4.0 0.00 0.00 0.00 38 1008.4
20260904110605 63 58 1.0 4.0 0.00 0.00 0.00 38 1008.3
20260904110505 63 74 1.0 4.0 0.00 0.00 0.00 38 1008.3
20260904110405 63 79 1.0 6.0 0.00 0.00 0.00 38 1008.3
20260904110305 63 67 1.0 6.0 0.00 0.00 0.00 38 1008.2
20260904110205 63 47 1.0 6.0 0.00 0.00 0.00 38 1008.3
20260904110105 63 49 1.0 6.0 0.00 0.00 0.00 38 1008.3
20260904110005 63 0 0.0 6.0 0.00 0.00 0.00 38 1008.3
20260904105905 63 114 1.0 6.0 0.00 0.00 0.00 38 1008.2
20260904105805 63 108 2.0 6.0 0.00 0.00 0.00 39 1008.3
20260904105705 63 100 2.0 6.0 0.00 0.00 0.00 38 1008.2
20260904105604 63 92 2.0 6.0 0.00 0.00 0.00 38 1008.2
20260904105504 63 0 0.0 6.0 0.00 0.00 0.00 38 1008.2
20260904105405 63 95 2.0 6.0 0.00 0.00 0.00 38 1008.3
20260904105306 63 107 2.0 6.0 0.00 0.00 0.00 39 1008.2
20260904105204 63 120 2.0 6.0 0.00 0.00 0.00 39 1008.2
20260904105104 63 114 2.0 6.0 0.00 0.00 0.00 39 1008.2
20260904105005 63 114 1.0 6.0 0.00 0.00 0.00 39 1008.2
20260904104905 63 108 2.0 6.0 0.00 0.00 0.00 38 1008.2
20260904104805 63 119 1.0 6.0 0.00 0.00 0.00 39 1008.3
20260904104704 63 157 2.0 6.0 0.00 0.00 0.00 39 1008.3
20260904104604 63 196 3.0 6.0 0.00 0.00 0.00 39 1008.1
20260904104505 63 190 1.0 4.0 0.00 0.00 0.00 39 1008.1
20260904104405 63 190 2.0 4.0 0.00 0.00 0.00 39 1008.2
20260904104305 63 295 1.0 7.0 0.00 0.00 0.00 39 1008.2
20260904104205 63 263 1.0 7.0 0.00 0.00 0.00 38 1008.2
20260904104105 63 0 0.0 7.0 0.00 0.00 0.00 38 1008.2
20260904104004 63 223 1.0 7.0 0.00 0.00 0.00 38 1008.2
20260904103905 63 221 2.0 7.0 0.00 0.00 0.00 38 1008.2
20260904103805 63 227 1.0 7.0 0.00 0.00 0.00 38 1008.2
20260904103705 63 234 1.0 7.0 0.00 0.00 0.00 37 1008.2
20260904103504 63 255 1.0 7.0 0.00 0.00 0.00 38 1008.2
20260904103405 63 238 2.0 7.0 0.00 0.00 0.00 37 1008.2
20260904103305 63 240 2.0 7.0 0.00 0.00 0.00 38 1008.2
20260904103205 63 240 1.0 5.0 0.00 0.00 0.00 38 1008.2
20260904103104 63 241 1.0 7.0 0.00 0.00 0.00 38 1008.3
20260904102905 63 225 1.0 9.0 0.00 0.00 0.00 37 1008.1
20260904102805 63 223 1.0 9.0 0.00 0.00 0.00 37 1008.2
20260904102704 63 222 1.0 9.0 0.00 0.00 0.00 37 1008.2
20260904102604 63 0 0.0 9.0 0.00 0.00 0.00 37 1008.1
20260904102505 63 213 2.0 9.0 0.00 0.00 0.00 38 1008.2
20260904102306 63 199 2.0 9.0 0.00 0.00 0.00 38 1008.2
20260904102204 63 191 2.0 9.0 0.00 0.00 0.00 38 1008.1
20260904102105 63 182 4.0 9.0 0.00 0.00 0.00 38 1008.1
20260904102005 62 166 6.0 9.0 0.00 0.00 0.00 38 1008.1
20260904101905 62 159 5.0 8.0 0.00 0.00 0.00 38 1008.1
20260904101804 62 135 2.0 6.0 0.00 0.00 0.00 38 1008.0
20260904101705 62 136 2.0 6.0 0.00 0.00 0.00 39 1008.0
20260904101605 62 135 1.0 3.0 0.00 0.00 0.00 38 1008.1
20260904101505 62 139 2.0 3.0 0.00 0.00 0.00 38 1008.2
20260904101404 62 0 0.0 3.0 0.00 0.00 0.00 38 1008.2
20260904101304 62 150 1.0 2.0 0.00 0.00 0.00 38 1008.0
20260904101205 63 156 1.0 2.0 0.00 0.00 0.00 38 1008.2
20260904101105 63 161 1.0 2.0 0.00 0.00 0.00 38 1008.2
20260904101005 63 172 1.0 2.0 0.00 0.00 0.00 38 1008.2
20260904100904 63 0 0.0 2.0 0.00 0.00 0.00 38 1008.1
20260904100805 63 0 0.0 7.0 0.00 0.00 0.00 38 1008.0
20260904100705 63 183 1.0 7.0 0.00 0.00 0.00 37 1008.2
20260904100605 63 179 1.0 7.0 0.00 0.00 0.00 37 1008.1
20260904100504 63 182 1.0 7.0 0.00 0.00 0.00 37 1008.0
20260904100405 63 183 1.0 7.0 0.00 0.00 0.00 37 1008.2
20260904100305 63 191 1.0 7.0 0.00 0.00 0.00 37 1008.0
20260904100205 63 187 1.0 7.0 0.00 0.00 0.00 37 1008.1
20260904100105 63 192 1.0 7.0 0.00 0.00 0.00 37 1008.1
20260904100005 63 193 2.0 7.0 0.00 0.00 0.00 37 1008.1
20260904095905 63 191 3.0 7.0 0.00 0.00 0.00 37 1008.0
20260904095805 63 178 2.0 7.0 0.00 0.00 0.00 37 1007.9
20260904095705 63 0 0.0 4.0 0.00 0.00 0.00 37 1008.0
20260904095605 63 0 0.0 4.0 0.00 0.00 0.00 38 1008.0
20260904095505 63 162 2.0 5.0 0.00 0.00 0.00 38 1008.1
20260904095405 63 153 2.0 5.0 0.00 0.00 0.00 38 1008.0
20260904095306 63 135 1.0 5.0 0.00 0.00 0.00 37 1008.0
20260904095205 63 137 1.0 5.0 0.00 0.00 0.00 38 1008.1
20260904095105 63 127 2.0 5.0 0.00 0.00 0.00 38 1008.1
20260904095005 63 127 1.0 5.0 0.00 0.00 0.00 38 1008.1
20260904094904 63 123 1.0 5.0 0.00 0.00 0.00 37 1008.0
20260904094804 63 0 0.0 5.0 0.00 0.00 0.00 37 1008.1
20260904094705 63 132 2.0 5.0 0.00 0.00 0.00 37 1008.0
20260904094605 63 138 2.0 5.0 0.00 0.00 0.00 38 1008.1
20260904094404 63 141 2.0 5.0 0.00 0.00 0.00 38 1008.0
20260904094305 63 147 2.0 5.0 0.00 0.00 0.00 37 1008.2
20260904094205 63 150 1.0 5.0 0.00 0.00 0.00 38 1008.0
20260904094105 63 164 1.0 5.0 0.00 0.00 0.00 37 1008.1
20260904094004 63 0 0.0 5.0 0.00 0.00 0.00 37 1008.1
20260904093905 63 177 2.0 5.0 0.00 0.00 0.00 37 1008.1
20260904093805 63 167 2.0 5.0 0.00 0.00 0.00 37 1008.1
20260904093705 63 167 2.0 5.0 0.00 0.00 0.00 37 1007.9
20260904093604 63 167 1.0 5.0 0.00 0.00 0.00 37 1008.0
20260904093504 63 0 0.0 5.0 0.00 0.00 0.00 37 1008.0
20260904093405 63 0 0.0 5.0 0.00 0.00 0.00 37 1008.2
20260904093305 63 0 0.0 5.0 0.00 0.00 0.00 37 1008.1
20260904093205 63 188 1.0 5.0 0.00 0.00 0.00 37 1008.1
20260904093104 63 185 2.0 5.0 0.00 0.00 0.00 38 1008.1
20260904093005 63 184 2.0 4.0 0.00 0.00 0.00 37 1008.2
20260904092905 63 204 1.0 4.0 0.00 0.00 0.00 37 1008.1
20260904092804 63 0 0.0 4.0 0.00 0.00 0.00 37 1008.1
20260904092705 63 0 0.0 4.0 0.00 0.00 0.00 37 1008.1
20260904092605 63 222 1.0 4.0 0.00 0.00 0.00 37 1008.1
20260904092505 63 224 2.0 6.0 0.00 0.00 0.00 37 1008.1
20260904092405 63 231 1.0 6.0 0.00 0.00 0.00 37 1008.2
20260904092204 63 240 1.0 6.0 0.00 0.00 0.00 37 1008.2
20260904092105 63 0 0.0 6.0 0.00 0.00 0.00 37 1008.1
20260904092005 63 244 2.0 6.0 0.00 0.00 0.00 37 1008.1
20260904091904 63 242 2.0 6.0 0.00 0.00 0.00 37 1008.2
20260904091805 63 233 1.0 6.0 0.00 0.00 0.00 37 1008.2
20260904091705 63 248 1.0 6.0 0.00 0.00 0.00 37 1008.1
20260904091005 63 229 1.0 5.0 0.00 0.00 0.00 36 1008.2
20260904090904 63 228 1.0 5.0 0.00 0.00 0.00 36 1008.1
20260904090805 63 234 1.0 5.0 0.00 0.00 0.00 36 1008.1
20260904090704 63 228 3.0 5.0 0.00 0.00 0.00 36 1008.1
20260904090605 63 222 3.0 5.0 0.00 0.00 0.00 36 1008.2
20260904090505 63 222 3.0 5.0 0.00 0.00 0.00 36 1008.2
20260904090404 63 219 3.0 6.0 0.00 0.00 0.00 36 1008.3
20260904090304 63 216 3.0 7.0 0.00 0.00 0.00 36 1008.2
20260904090205 63 221 3.0 7.0 0.00 0.00 0.00 36 1008.1
20260904090105 63 221 3.0 7.0 0.00 0.00 0.00 36 1008.3
20260904090005 63 221 3.0 7.0 0.00 0.00 0.00 36 1008.2
20260904085904 63 221 1.0 7.0 0.00 0.00 0.00 36 1008.2
20260904085804 63 224 1.0 7.0 0.00 0.00 0.00 36 1008.1
20260904085705 63 225 1.0 7.0 0.00 0.00 0.00 36 1008.2
20260904085605 63 233 3.0 8.0 0.00 0.00 0.00 36 1008.2
20260904085505 63 235 4.0 8.0 0.00 0.00 0.00 36 1008.2
20260904085405 63 237 4.0 8.0 0.00 0.00 0.00 36 1008.2
20260904085306 63 238 4.0 9.0 0.00 0.00 0.00 37 1008.3
20260904085205 63 233 4.0 9.0 0.00 0.00 0.00 37 1008.2
20260904085104 63 233 4.0 9.0 0.00 0.00 0.00 37 1008.2
20260904085004 63 236 3.0 9.0 0.00 0.00 0.00 37 1008.2
20260904084905 63 236 3.0 9.0 0.00 0.00 0.00 37 1008.1
20260904084805 62 229 3.0 9.0 0.00 0.00 0.00 37 1008.1
20260904084704 62 231 4.0 9.0 0.00 0.00 0.00 38 1008.1
20260904084605 62 233 5.0 9.0 0.00 0.00 0.00 38 1008.3
20260904084505 62 230 5.0 9.0 0.00 0.00 0.00 38 1008.2
20260904084404 62 237 4.0 9.0 0.00 0.00 0.00 38 1008.3
20260904084205 62 244 4.0 7.0 0.00 0.00 0.00 38 1008.2
20260904084105 62 249 3.0 5.0 0.00 0.00 0.00 38 1008.2
20260904084005 62 247 3.0 5.0 0.00 0.00 0.00 38 1008.2
20260904083905 62 250 3.0 4.0 0.00 0.00 0.00 38 1008.2
20260904083305 62 232 2.0 4.0 0.00 0.00 0.00 38 1008.3
20260904082804 62 235 2.0 7.0 0.00 0.00 0.00 38 1008.3
20260904082704 62 234 2.0 7.0 0.00 0.00 0.00 38 1008.4
20260904082605 62 235 2.0 7.0 0.00 0.00 0.00 38 1008.3
20260904082505 62 246 3.0 7.0 0.00 0.00 0.00 38 1008.3
20260904082405 62 239 2.0 8.0 0.00 0.00 0.00 38 1008.3
20260904082306 62 235 3.0 8.0 0.00 0.00 0.00 38 1008.3
20260904082205 62 237 2.0 8.0 0.00 0.00 0.00 38 1008.3
20260904082105 62 234 3.0 8.0 0.00 0.00 0.00 38 1008.3
20260904082004 62 234 3.0 8.0 0.00 0.00 0.00 38 1008.3
20260904081905 62 235 4.0 8.0 0.00 0.00 0.00 38 1008.3
20260904081805 62 232 4.0 8.0 0.00 0.00 0.00 38 1008.3
20260904081704 62 232 3.0 9.0 0.00 0.00 0.00 38 1008.3
20260904081605 62 231 4.0 9.0 0.00 0.00 0.00 38 1008.3
20260904081505 62 226 5.0 9.0 0.00 0.00 0.00 38 1008.4
20260904081405 62 229 6.0 9.0 0.00 0.00 0.00 38 1008.5
20260904081305 62 229 6.0 9.0 0.00 0.00 0.00 37 1008.4
20260904081204 62 225 5.0 9.0 0.00 0.00 0.00 37 1008.3
20260904081104 62 225 5.0 9.0 0.00 0.00 0.00 37 1008.4
20260904081005 62 226 4.0 9.0 0.00 0.00 0.00 37 1008.3
20260904080905 62 223 4.0 9.0 0.00 0.00 0.00 37 1008.3
20260904080804 62 223 5.0 9.0 0.00 0.00 0.00 37 1008.3
20260904080705 62 221 6.0 9.0 0.00 0.00 0.00 37 1008.4
20260904080605 62 223 6.0 9.0 0.00 0.00 0.00 37 1008.3
20260904080504 62 223 6.0 9.0 0.00 0.00 0.00 37 1008.4
20260904080404 62 223 6.0 11.0 0.00 0.00 0.00 37 1008.4
20260904080305 62 223 6.0 11.0 0.00 0.00 0.00 37 1008.3
20260904080205 62 227 6.0 11.0 0.00 0.00 0.00 37 1008.3
20260904080104 62 227 6.0 11.0 0.00 0.00 0.00 37 1008.3
20260904080005 62 227 6.0 11.0 0.00 0.00 0.00 37 1008.4
20260904075505 62 239 8.0 11.0 0.00 0.00 0.00 37 1008.4
20260904075405 62 238 7.0 11.0 0.00 0.00 0.00 37 1008.4
20260904075306 62 239 7.0 11.0 0.00 0.00 0.00 37 1008.3
20260904075204 62 235 7.0 10.0 0.00 0.00 0.00 37 1008.4
20260904075104 62 237 7.0 10.0 0.00 0.00 0.00 37 1008.3
20260904075005 62 238 7.0 10.0 0.00 0.00 0.00 37 1008.4
20260904074905 62 242 6.0 8.0 0.00 0.00 0.00 37 1008.4
20260904074305 62 238 3.0 8.0 0.00 0.00 0.00 37 1008.5
20260904074205 62 232 2.0 8.0 0.00 0.00 0.00 37 1008.4
20260904074104 62 216 3.0 8.0 0.00 0.00 0.00 37 1008.4
20260904074004 62 219 4.0 8.0 0.00 0.00 0.00 37 1008.4
20260904073905 62 210 3.0 8.0 0.00 0.00 0.00 37 1008.4
20260904073805 62 159 2.0 8.0 0.00 0.00 0.00 37 1008.4
20260904073305 62 127 3.0 8.0 0.00 0.00 0.00 38 1008.4
20260904073204 62 150 2.0 8.0 0.00 0.00 0.00 38 1008.4
20260904073105 62 198 2.0 7.0 0.00 0.00 0.00 38 1008.4
20260904073005 62 223 3.0 8.0 0.00 0.00 0.00 38 1008.4
20260904072905 62 254 4.0 10.0 0.00 0.00 0.00 37 1008.4
20260904072804 63 278 3.0 11.0 0.00 0.00 0.00 37 1008.4
20260904072705 63 284 3.0 11.0 0.00 0.00 0.00 37 1008.4
20260904072605 63 274 2.0 13.0 0.00 0.00 0.00 36 1008.4
20260904072505 63 281 2.0 13.0 0.00 0.00 0.00 37 1008.4
20260904072404 63 303 2.0 17.0 0.00 0.00 0.00 36 1008.4
20260904072306 63 307 2.0 17.0 0.00 0.00 0.00 36 1008.4
20260904072205 63 300 4.0 17.0 0.00 0.00 0.00 36 1008.5
20260904072105 63 298 2.0 17.0 0.00 0.00 0.00 36 1008.3
20260904072004 63 292 6.0 17.0 0.00 0.00 0.00 35 1008.4
20260904071905 63 289 6.0 17.0 0.00 0.00 0.00 35 1008.4
20260904071805 63 276 7.0 17.0 0.00 0.00 0.00 35 1008.3
20260904071705 63 267 6.0 17.0 0.00 0.00 0.00 35 1008.4
20260904071604 63 275 7.0 17.0 0.00 0.00 0.00 35 1008.3
20260904071505 63 272 8.0 17.0 0.00 0.00 0.00 35 1008.3
20260904071405 63 267 8.0 17.0 0.00 0.00 0.00 35 1008.2
20260904071304 63 261 9.0 17.0 0.00 0.00 0.00 35 1008.3
20260904071205 63 267 8.0 17.0 0.00 0.00 0.00 35 1008.2
20260904071105 63 273 7.0 17.0 0.00 0.00 0.00 35 1008.2
20260904071004 63 276 9.0 17.0 0.00 0.00 0.00 35 1008.3
20260904070905 63 281 8.0 18.0 0.00 0.00 0.00 35 1008.3
20260904070805 63 287 8.0 18.0 0.00 0.00 0.00 35 1008.4
20260904070705 63 287 8.0 18.0 0.00 0.00 0.00 35 1008.3
20260904070604 63 284 8.0 18.0 0.00 0.00 0.00 35 1008.3
20260904070505 63 279 8.0 18.0 0.00 0.00 0.00 35 1008.4
20260904070405 63 279 8.0 18.0 0.00 0.00 0.00 35 1008.3
20260904070305 63 277 8.0 19.0 0.00 0.00 0.00 35 1008.4
20260904070204 63 270 8.0 19.0 0.00 0.00 0.00 35 1008.4
20260904070104 63 265 8.0 19.0 0.00 0.00 0.00 35 1008.4
20260904070007 63 258 11.0 19.0 0.00 0.00 0.00 35 1008.4
20260904065505 63 246 8.0 20.0 0.00 0.00 0.00 34 1008.3
20260904065405 63 234 12.0 20.0 0.00 0.00 0.00 34 1008.3
20260904065306 63 229 14.0 20.0 0.00 0.00 0.00 34 1008.3
20260904065205 63 229 11.0 20.0 0.00 0.00 0.00 35 1008.3
20260904065105 63 228 9.0 22.0 0.00 0.00 0.00 35 1008.3
20260904065005 63 228 10.0 22.0 0.00 0.00 0.00 35 1008.3
20260904064905 63 226 11.0 22.0 0.00 0.00 0.00 35 1008.2
20260904064805 63 222 11.0 22.0 0.00 0.00 0.00 35 1008.3
20260904064704 63 218 13.0 22.0 0.00 0.00 0.00 35 1008.2
20260904064605 63 218 11.0 23.0 0.00 0.00 0.00 35 1008.1
20260904064505 63 214 12.0 23.0 0.00 0.00 0.00 35 1008.2
20260904064405 63 218 11.0 23.0 0.00 0.00 0.00 35 1008.2
20260904064305 63 218 11.0 23.0 0.00 0.00 0.00 35 1008.2
20260904064204 63 218 10.0 23.0 0.00 0.00 0.00 35 1008.1
20260904064105 63 217 15.0 23.0 0.00 0.00 0.00 35 1008.3
20260904064005 63 223 13.0 23.0 0.00 0.00 0.00 35 1008.3
20260904063805 63 223 12.0 23.0 0.00 0.00 0.00 35 1008.2
20260904063704 63 234 10.0 23.0 0.00 0.00 0.00 35 1008.3
20260904063604 63 238 12.0 21.0 0.00 0.00 0.00 35 1008.3
20260904063505 63 241 11.0 21.0 0.00 0.00 0.00 35 1008.3
20260904063405 63 238 11.0 21.0 0.00 0.00 0.00 35 1008.3
20260904063305 63 239 13.0 21.0 0.00 0.00 0.00 35 1008.3
20260904063205 64 237 11.0 25.0 0.00 0.00 0.00 35 1008.3
20260904063105 64 241 9.0 25.0 0.00 0.00 0.00 34 1008.3
20260904063005 64 243 11.0 25.0 0.00 0.00 0.00 35 1008.4
20260904062904 64 253 14.0 25.0 0.00 0.00 0.00 34 1008.3
20260904062705 63 243 14.0 25.0 0.00 0.00 0.00 35 1008.3
20260904062604 63 239 13.0 25.0 0.00 0.00 0.00 35 1008.3
20260904062505 63 244 11.0 25.0 0.00 0.00 0.00 35 1008.3
20260904062405 63 242 13.0 25.0 0.00 0.00 0.00 35 1008.3
20260904062306 63 241 13.0 25.0 0.00 0.00 0.00 35 1008.3
20260904062205 63 241 16.0 25.0 0.00 0.00 0.00 35 1008.3
20260904062105 63 237 11.0 21.0 0.00 0.00 0.00 35 1008.3
20260904062004 63 227 15.0 21.0 0.00 0.00 0.00 35 1008.3
20260904061904 63 221 15.0 21.0 0.00 0.00 0.00 35 1008.2
20260904061805 63 220 14.0 21.0 0.00 0.00 0.00 35 1008.3
20260904061705 63 220 12.0 21.0 0.00 0.00 0.00 35 1008.4
20260904061605 63 220 9.0 18.0 0.00 0.00 0.00 36 1008.1
20260904061505 63 216 9.0 17.0 0.00 0.00 0.00 36 1008.2
20260904061404 63 221 8.0 17.0 0.00 0.00 0.00 36 1008.4
20260904061305 63 224 11.0 17.0 0.00 0.00 0.00 35 1008.3
20260904061205 64 225 6.0 17.0 0.00 0.00 0.00 35 1008.2
20260904061105 64 225 6.0 17.0 0.00 0.00 0.00 35 1008.2
20260904061005 64 225 7.0 17.0 0.00 0.00 0.00 35 1008.2
20260904060904 64 230 7.0 18.0 0.00 0.00 0.00 35 1008.3
20260904060805 64 240 9.0 22.0 0.00 0.00 0.00 35 1008.2
20260904060705 64 250 13.0 22.0 0.00 0.00 0.00 34 1008.2
20260904060604 64 253 13.0 22.0 0.00 0.00 0.00 34 1008.2
20260904060505 64 255 13.0 22.0 0.00 0.00 0.00 34 1008.3
20260904060405 64 262 13.0 22.0 0.00 0.00 0.00 34 1008.2
20260904060304 64 260 13.0 22.0 0.00 0.00 0.00 34 1008.2
20260904060204 64 263 13.0 22.0 0.00 0.00 0.00 34 1008.3
20260904060105 64 265 13.0 22.0 0.00 0.00 0.00 34 1008.2
20260904055905 64 254 14.0 22.0 0.00 0.00 0.00 34 1008.3
20260904055805 64 236 17.0 22.0 0.00 0.00 0.00 34 1008.3
20260904055704 64 223 15.0 22.0 0.00 0.00 0.00 34 1008.3
20260904055605 64 218 12.0 20.0 0.00 0.00 0.00 34 1008.3
20260904055505 64 223 11.0 22.0 0.00 0.00 0.00 34 1008.3
20260904055306 64 224 10.0 22.0 0.00 0.00 0.00 35 1008.3
20260904055204 64 225 11.0 22.0 0.00 0.00 0.00 34 1008.3
20260904055104 64 230 15.0 22.0 0.00 0.00 0.00 34 1008.4
20260904055004 64 231 11.0 22.0 0.00 0.00 0.00 34 1008.4
20260904054905 64 237 11.0 22.0 0.00 0.00 0.00 34 1008.3
20260904054805 64 245 12.0 22.0 0.00 0.00 0.00 34 1008.3
20260904054705 64 253 11.0 22.0 0.00 0.00 0.00 34 1008.3
20260904054605 64 258 11.0 22.0 0.00 0.00 0.00 34 1008.3
20260904054505 64 261 15.0 22.0 0.00 0.00 0.00 34 1008.4
20260904054405 64 258 11.0 19.0 0.00 0.00 0.00 34 1008.3
20260904054305 64 266 9.0 19.0 0.00 0.00 0.00 35 1008.3
20260904054204 64 270 11.0 19.0 0.00 0.00 0.00 35 1008.3
20260904054104 64 263 11.0 19.0 0.00 0.00 0.00 35 1008.4
20260904054005 64 258 11.0 19.0 0.00 0.00 0.00 35 1008.3
20260904053905 64 248 11.0 19.0 0.00 0.00 0.00 35 1008.4
20260904053704 64 236 11.0 20.0 0.00 0.00 0.00 35 1008.3
20260904053605 64 240 9.0 20.0 0.00 0.00 0.00 35 1008.4
20260904053505 64 234 9.0 21.0 0.00 0.00 0.00 34 1008.5
20260904053404 64 233 12.0 22.0 0.00 0.00 0.00 35 1008.3
20260904053304 64 230 8.0 22.0 0.00 0.00 0.00 34 1008.4
20260904053205 64 231 8.0 22.0 0.00 0.00 0.00 34 1008.4
20260904053105 64 233 9.0 22.0 0.00 0.00 0.00 34 1008.4
20260904053004 64 230 10.0 22.0 0.00 0.00 0.00 34 1008.4
20260904052905 64 230 10.0 22.0 0.00 0.00 0.00 34 1008.4
20260904052805 64 230 14.0 22.0 0.00 0.00 0.00 34 1008.3
20260904052705 64 230 12.0 22.0 0.00 0.00 0.00 34 1008.3
20260904052604 64 225 11.0 22.0 0.00 0.00 0.00 34 1008.5
20260904052504 64 230 15.0 22.0 0.00 0.00 0.00 34 1008.4
20260904052405 64 230 15.0 22.0 0.00 0.00 0.00 34 1008.4
20260904052307 64 230 12.0 19.0 0.00 0.00 0.00 34 1008.5
20260904052204 64 226 12.0 19.0 0.00 0.00 0.00 34 1008.4
20260904052104 64 228 12.0 19.0 0.00 0.00 0.00 34 1008.4
20260904052005 64 237 11.0 18.0 0.00 0.00 0.00 34 1008.4
20260904051905 64 242 11.0 18.0 0.00 0.00 0.00 34 1008.5
20260904051804 64 246 14.0 18.0 0.00 0.00 0.00 34 1008.4
20260904051705 64 241 13.0 18.0 0.00 0.00 0.00 34 1008.4
20260904051605 64 255 10.0 17.0 0.00 0.00 0.00 35 1008.6
20260904050905 64 294 8.0 17.0 0.00 0.00 0.00 34 1008.5
20260904050805 64 289 11.0 17.0 0.00 0.00 0.00 34 1008.4
20260904050704 64 290 9.0 15.0 0.00 0.00 0.00 35 1008.5
20260904050605 64 282 9.0 15.0 0.00 0.00 0.00 35 1008.5
20260904050505 64 270 9.0 15.0 0.00 0.00 0.00 35 1008.6
20260904050404 64 252 9.0 15.0 0.00 0.00 0.00 35 1008.6
20260904050205 64 232 9.0 17.0 0.00 0.00 0.00 35 1008.5
20260904050104 64 224 9.0 17.0 0.00 0.00 0.00 35 1008.5
20260904050004 64 223 8.0 17.0 0.00 0.00 0.00 35 1008.5
20260904045905 64 228 10.0 17.0 0.00 0.00 0.00 35 1008.6
20260904045705 64 242 8.0 17.0 0.00 0.00 0.00 35 1008.5
20260904045605 64 241 8.0 17.0 0.00 0.00 0.00 35 1008.4
20260904045505 64 246 9.0 17.0 0.00 0.00 0.00 35 1008.4
20260904045404 64 250 10.0 17.0 0.00 0.00 0.00 35 1008.5
20260904045307 64 251 11.0 17.0 0.00 0.00 0.00 35 1008.5
20260904045205 64 250 6.0 15.0 0.00 0.00 0.00 35 1008.6
20260904045104 64 250 9.0 15.0 0.00 0.00 0.00 35 1008.5
20260904045004 64 247 11.0 15.0 0.00 0.00 0.00 35 1008.6
20260904044905 64 238 7.0 15.0 0.00 0.00 0.00 35 1008.6
20260904044805 64 234 7.0 15.0 0.00 0.00 0.00 35 1008.5
20260904044704 64 229 8.0 15.0 0.00 0.00 0.00 35 1008.5
20260904044605 64 229 7.0 15.0 0.00 0.00 0.00 35 1008.6
20260904044505 64 236 8.0 15.0 0.00 0.00 0.00 35 1008.5
20260904044205 64 245 6.0 15.0 0.00 0.00 0.00 35 1008.5
20260904044105 64 244 4.0 15.0 0.00 0.00 0.00 35 1008.4
20260904044005 64 240 10.0 15.0 0.00 0.00 0.00 35 1008.6
20260904043904 64 245 8.0 15.0 0.00 0.00 0.00 35 1008.3
20260904043805 64 246 5.0 15.0 0.00 0.00 0.00 35 1008.3
20260904043705 64 254 8.0 15.0 0.00 0.00 0.00 35 1008.4
20260904043604 64 255 8.0 15.0 0.00 0.00 0.00 35 1008.4
20260904043504 64 243 8.0 13.0 0.00 0.00 0.00 35 1008.4
20260904043405 64 239 8.0 13.0 0.00 0.00 0.00 35 1008.3
20260904043205 64 240 4.0 17.0 0.00 0.00 0.00 35 1008.3
20260904042705 65 222 5.0 17.0 0.00 0.00 0.00 34 1008.4
20260904042004 65 214 10.0 17.0 0.00 0.00 0.00 34 1008.2
20260904041904 65 221 8.0 17.0 0.00 0.00 0.00 34 1008.3
20260904041805 65 225 9.0 17.0 0.00 0.00 0.00 34 1008.2
20260904041705 65 225 10.0 17.0 0.00 0.00 0.00 34 1008.2
20260904041604 65 231 11.0 17.0 0.00 0.00 0.00 34 1008.3
20260904041505 65 233 8.0 17.0 0.00 0.00 0.00 34 1008.2
20260904041005 65 236 11.0 17.0 0.00 0.00 0.00 34 1008.2
20260904040905 65 231 11.0 17.0 0.00 0.00 0.00 34 1008.2
20260904040804 65 230 13.0 17.0 0.00 0.00 0.00 34 1008.2
20260904040704 65 227 11.0 17.0 0.00 0.00 0.00 34 1008.2
20260904040604 65 224 11.0 17.0 0.00 0.00 0.00 34 1008.1
20260904040505 65 222 12.0 17.0 0.00 0.00 0.00 34 1008.3
20260904040405 65 220 12.0 17.0 0.00 0.00 0.00 34 1008.2
20260904040304 65 217 12.0 17.0 0.00 0.00 0.00 34 1008.2
20260904040204 65 216 12.0 17.0 0.00 0.00 0.00 34 1008.3
20260904040104 65 215 12.0 17.0 0.00 0.00 0.00 34 1008.2
20260904040005 65 216 11.0 17.0 0.00 0.00 0.00 34 1008.2
20260904035904 65 216 12.0 17.0 0.00 0.00 0.00 33 1008.1
20260904035804 65 216 11.0 17.0 0.00 0.00 0.00 33 1008.1
20260904035705 65 218 11.0 17.0 0.00 0.00 0.00 34 1008.2
20260904035605 65 220 11.0 17.0 0.00 0.00 0.00 34 1008.1
20260904035504 65 220 10.0 17.0 0.00 0.00 0.00 34 1008.2
20260904035404 65 221 10.0 17.0 0.00 0.00 0.00 34 1008.1
20260904035306 65 227 9.0 17.0 0.00 0.00 0.00 33 1008.1
20260904035204 65 229 12.0 17.0 0.00 0.00 0.00 34 1008.2
20260904035104 65 228 12.0 17.0 0.00 0.00 0.00 34 1008.0
20260904035005 65 228 12.0 17.0 0.00 0.00 0.00 34 1008.2
20260904034904 65 226 12.0 17.0 0.00 0.00 0.00 34 1008.1
20260904034804 65 230 12.0 17.0 0.00 0.00 0.00 34 1008.1
20260904034704 65 231 12.0 17.0 0.00 0.00 0.00 34 1008.2
20260904034605 65 240 12.0 17.0 0.00 0.00 0.00 34 1008.2
20260904034505 65 240 12.0 17.0 0.00 0.00 0.00 34 1008.1
20260904034205 65 246 11.0 17.0 0.00 0.00 0.00 34 1008.2
20260904034105 65 257 11.0 17.0 0.00 0.00 0.00 34 1008.2
20260904034004 65 258 6.0 17.0 0.00 0.00 0.00 33 1008.1
20260904033904 65 259 5.0 17.0 0.00 0.00 0.00 33 1008.1
20260904033805 65 254 9.0 17.0 0.00 0.00 0.00 33 1007.9
20260904033704 65 257 11.0 17.0 0.00 0.00 0.00 33 1008.0
20260904033605 65 253 9.0 19.0 0.00 0.00 0.00 33 1007.9
20260904033505 65 253 10.0 21.0 0.00 0.00 0.00 33 1007.9
20260904033404 65 245 10.0 21.0 0.00 0.00 0.00 33 1008.1
20260904033304 65 244 9.0 21.0 0.00 0.00 0.00 33 1007.9
20260904033205 65 253 11.0 21.0 0.00 0.00 0.00 33 1007.9
20260904033105 65 249 8.0 21.0 0.00 0.00 0.00 33 1007.9
20260904033004 65 249 8.0 21.0 0.00 0.00 0.00 33 1007.9
20260904032904 65 249 10.0 21.0 0.00 0.00 0.00 33 1007.9
20260904032805 65 255 11.0 21.0 0.00 0.00 0.00 33 1007.9
20260904032705 65 255 9.0 21.0 0.00 0.00 0.00 33 1008.0
20260904032604 65 255 12.0 21.0 0.00 0.00 0.00 33 1007.9
20260904032505 65 252 17.0 21.0 0.00 0.00 0.00 33 1007.8
20260904032404 65 259 11.0 20.0 0.00 0.00 0.00 33 1007.9
20260904032306 65 256 7.0 20.0 0.00 0.00 0.00 33 1007.9
20260904032204 65 250 9.0 20.0 0.00 0.00 0.00 33 1007.9
20260904032105 65 243 11.0 20.0 0.00 0.00 0.00 33 1007.8
20260904031904 65 256 11.0 20.0 0.00 0.00 0.00 34 1007.9
20260904031804 65 256 14.0 18.0 0.00 0.00 0.00 34 1007.9
20260904031705 65 247 12.0 18.0 0.00 0.00 0.00 34 1007.9
20260904031605 65 242 11.0 18.0 0.00 0.00 0.00 34 1007.8
20260904031504 65 246 8.0 18.0 0.00 0.00 0.00 34 1007.8
20260904031304 65 248 8.0 18.0 0.00 0.00 0.00 34 1007.8
20260904031204 65 246 8.0 18.0 0.00 0.00 0.00 34 1007.8
20260904031105 65 245 10.0 18.0 0.00 0.00 0.00 34 1007.9
20260904031005 65 240 12.0 18.0 0.00 0.00 0.00 34 1007.8
20260904030904 65 229 10.0 18.0 0.00 0.00 0.00 34 1007.7
20260904030805 65 231 10.0 18.0 0.00 0.00 0.00 34 1007.8
20260904030705 65 232 9.0 18.0 0.00 0.00 0.00 34 1007.8
20260904030604 65 234 7.0 18.0 0.00 0.00 0.00 34 1007.8
20260904030505 65 233 7.0 18.0 0.00 0.00 0.00 34 1007.8
20260904030304 65 235 11.0 18.0 0.00 0.00 0.00 33 1007.7
20260904030205 65 236 9.0 18.0 0.00 0.00 0.00 33 1007.6
20260904030105 65 236 11.0 18.0 0.00 0.00 0.00 33 1007.7
20260904030004 65 227 12.0 21.0 0.00 0.00 0.00 33 1007.7
20260904025904 65 227 8.0 21.0 0.00 0.00 0.00 34 1007.7
20260904025205 65 227 9.0 21.0 0.00 0.00 0.00 34 1007.8
20260904025104 65 228 12.0 21.0 0.00 0.00 0.00 34 1007.8
20260904025004 65 235 9.0 20.0 0.00 0.00 0.00 34 1007.8
20260904024905 65 236 10.0 20.0 0.00 0.00 0.00 34 1007.8
20260904024805 65 236 10.0 20.0 0.00 0.00 0.00 34 1007.8
20260904024704 65 232 10.0 20.0 0.00 0.00 0.00 34 1007.8
20260904024604 65 228 9.0 20.0 0.00 0.00 0.00 34 1007.8
20260904024505 65 225 13.0 20.0 0.00 0.00 0.00 34 1007.9
20260904024405 65 225 8.0 14.0 0.00 0.00 0.00 34 1007.8
20260904024304 65 225 5.0 14.0 0.00 0.00 0.00 34 1007.8
20260904024205 66 222 5.0 14.0 0.00 0.00 0.00 34 1007.9
20260904024105 66 222 8.0 14.0 0.00 0.00 0.00 34 1007.9
20260904024004 66 222 8.0 14.0 0.00 0.00 0.00 34 1007.9
20260904023905 66 222 8.0 15.0 0.00 0.00 0.00 33 1007.9
20260904023805 66 227 7.0 16.0 0.00 0.00 0.00 33 1007.9
20260904023705 66 234 7.0 16.0 0.00 0.00 0.00 33 1007.9
20260904023605 66 243 8.0 16.0 0.00 0.00 0.00 33 1007.8
20260904023504 66 243 8.0 16.0 0.00 0.00 0.00 32 1007.9
20260904023405 66 240 8.0 18.0 0.00 0.00 0.00 32 1008.0
20260904023204 66 239 8.0 18.0 0.00 0.00 0.00 32 1008.0
20260904023104 66 238 8.0 18.0 0.00 0.00 0.00 32 1008.0
20260904023005 66 243 8.0 18.0 0.00 0.00 0.00 32 1007.9
20260904022905 66 243 11.0 18.0 0.00 0.00 0.00 32 1008.0
20260904022804 67 235 7.0 18.0 0.00 0.00 0.00 32 1007.8
20260904022704 67 230 10.0 18.0 0.00 0.00 0.00 32 1007.8
20260904022505 67 228 11.0 19.0 0.00 0.00 0.00 32 1007.9
20260904022404 67 226 11.0 19.0 0.00 0.00 0.00 32 1007.9
20260904022306 67 225 5.0 19.0 0.00 0.00 0.00 32 1008.0
20260904022205 67 225 8.0 19.0 0.00 0.00 0.00 32 1007.9
20260904022105 67 225 12.0 19.0 0.00 0.00 0.00 32 1007.9
20260904022004 67 220 8.0 19.0 0.00 0.00 0.00 32 1008.0
20260904021904 67 220 9.0 19.0 0.00 0.00 0.00 32 1007.9
20260904021805 67 220 12.0 19.0 0.00 0.00 0.00 32 1007.9
20260904021705 67 220 11.0 20.0 0.00 0.00 0.00 32 1008.0
20260904021004 67 233 8.0 21.0 0.00 0.00 0.00 32 1007.9
20260904020404 67 232 12.0 21.0 0.00 0.00 0.00 32 1007.9
20260904015904 67 237 8.0 20.0 0.00 0.00 0.00 31 1007.9
20260904015804 67 239 8.0 20.0 0.00 0.00 0.00 31 1007.9
20260904015705 67 240 9.0 20.0 0.00 0.00 0.00 31 1007.8
20260904015605 67 240 12.0 20.0 0.00 0.00 0.00 31 1007.9
20260904015504 67 232 12.0 20.0 0.00 0.00 0.00 31 1007.9
20260904014904 67 242 10.0 21.0 0.00 0.00 0.00 30 1007.8
20260904014804 67 242 8.0 21.0 0.00 0.00 0.00 30 1007.9
20260904014705 68 248 12.0 21.0 0.00 0.00 0.00 30 1007.8
20260904014605 68 250 11.0 21.0 0.00 0.00 0.00 30 1007.9
20260904014504 68 260 11.0 21.0 0.00 0.00 0.00 30 1007.9
20260904014404 68 246 11.0 21.0 0.00 0.00 0.00 30 1007.9
20260904014305 68 237 14.0 22.0 0.00 0.00 0.00 30 1007.8
20260904014205 68 248 14.0 23.0 0.00 0.00 0.00 30 1007.9
20260904014104 68 251 11.0 23.0 0.00 0.00 0.00 30 1007.9
20260904014005 68 249 6.0 23.0 0.00 0.00 0.00 30 1007.9
20260904013904 68 248 8.0 23.0 0.00 0.00 0.00 30 1008.0
20260904013804 68 247 8.0 23.0 0.00 0.00 0.00 29 1007.8
20260904013705 68 243 10.0 23.0 0.00 0.00 0.00 29 1007.9
20260904013605 68 241 8.0 25.0 0.00 0.00 0.00 29 1007.8
20260904013504 68 237 11.0 25.0 0.00 0.00 0.00 29 1007.9
20260904013404 68 237 12.0 25.0 0.00 0.00 0.00 29 1007.9
20260904013304 68 238 13.0 25.0 0.00 0.00 0.00 29 1007.9
20260904013205 68 240 12.0 25.0 0.00 0.00 0.00 29 1007.9
20260904013104 68 242 15.0 25.0 0.00 0.00 0.00 29 1007.8
20260904013004 68 242 15.0 25.0 0.00 0.00 0.00 29 1007.8
20260904012905 68 243 11.0 25.0 0.00 0.00 0.00 29 1007.9
20260904012805 69 247 11.0 25.0 0.00 0.00 0.00 29 1007.8
20260904012704 69 250 15.0 25.0 0.00 0.00 0.00 29 1007.9
20260904012605 69 243 13.0 22.0 0.00 0.00 0.00 28 1007.8
20260904012505 69 239 11.0 22.0 0.00 0.00 0.00 29 1007.8
20260904012404 69 234 11.0 23.0 0.00 0.00 0.00 28 1007.8
20260904012306 69 234 15.0 23.0 0.00 0.00 0.00 28 1007.8
20260904012205 69 225 14.0 23.0 0.00 0.00 0.00 27 1007.9
20260904012104 69 223 15.0 24.0 0.00 0.00 0.00 28 1007.9
20260904012004 69 223 8.0 24.0 0.00 0.00 0.00 28 1007.8
20260904011905 70 226 11.0 24.0 0.00 0.00 0.00 27 1007.9
20260904011804 70 231 11.0 24.0 0.00 0.00 0.00 27 1007.7
20260904011704 70 234 11.0 24.0 0.00 0.00 0.00 27 1007.9
20260904011605 70 242 13.0 24.0 0.00 0.00 0.00 26 1007.8
20260904011005 71 285 14.0 23.0 0.00 0.00 0.00 25 1007.8
20260904010405 71 266 11.0 24.0 0.00 0.00 0.00 24 1007.8
20260904010305 71 270 11.0 24.0 0.00 0.00 0.00 23 1007.8
20260904010205 72 278 14.0 24.0 0.00 0.00 0.00 23 1007.7
20260904010104 72 270 16.0 24.0 0.00 0.00 0.00 24 1007.9
20260904010005 72 264 15.0 25.0 0.00 0.00 0.00 24 1007.7
20260904005904 72 261 15.0 25.0 0.00 0.00 0.00 23 1007.8
20260904005805 72 257 17.0 25.0 0.00 0.00 0.00 24 1007.6
20260904005704 72 255 13.0 25.0 0.00 0.00 0.00 24 1007.7
20260904005605 72 254 13.0 25.0 0.00 0.00 0.00 23 1007.7
20260904005505 72 254 11.0 25.0 0.00 0.00 0.00 24 1007.7
20260904005306 72 241 18.0 25.0 0.00 0.00 0.00 24 1007.7
20260904005205 72 233 17.0 25.0 0.00 0.00 0.00 23 1007.7
20260904005104 72 239 11.0 25.0 0.00 0.00 0.00 24 1007.7
20260904005004 72 235 15.0 25.0 0.00 0.00 0.00 23 1007.7
20260904004905 72 236 15.0 25.0 0.00 0.00 0.00 23 1007.6
20260904004704 72 230 13.0 25.0 0.00 0.00 0.00 24 1007.8
20260904004604 72 230 10.0 25.0 0.00 0.00 0.00 24 1007.8
20260904004505 72 229 10.0 26.0 0.00 0.00 0.00 24 1007.8
20260904004405 72 229 13.0 26.0 0.00 0.00 0.00 24 1007.9
20260904004304 72 237 15.0 26.0 0.00 0.00 0.00 24 1007.8
20260904004205 72 239 15.0 26.0 0.00 0.00 0.00 24 1007.7
20260904004105 72 229 15.0 26.0 0.00 0.00 0.00 24 1007.8
20260904004004 72 229 14.0 26.0 0.00 0.00 0.00 23 1007.8
20260904003905 72 226 11.0 26.0 0.00 0.00 0.00 24 1007.8
20260904003805 72 226 14.0 26.0 0.00 0.00 0.00 24 1007.9
20260904003304 73 238 15.0 25.0 0.00 0.00 0.00 23 1007.8
20260904003204 73 236 16.0 25.0 0.00 0.00 0.00 22 1007.8
20260904003104 73 241 15.0 23.0 0.00 0.00 0.00 22 1007.8
20260904003005 73 241 15.0 23.0 0.00 0.00 0.00 22 1007.9
20260904002904 73 238 14.0 23.0 0.00 0.00 0.00 22 1007.9
20260904002804 73 237 11.0 23.0 0.00 0.00 0.00 22 1007.9
20260904002705 73 231 12.0 23.0 0.00 0.00 0.00 22 1007.8
20260904002605 73 231 15.0 24.0 0.00 0.00 0.00 22 1007.8
20260904002504 73 235 15.0 24.0 0.00 0.00 0.00 23 1007.8
20260904002405 73 255 17.0 24.0 0.00 0.00 0.00 23 1007.7
20260904002306 73 242 14.0 24.0 0.00 0.00 0.00 23 1007.8
20260904002204 73 244 15.0 24.0 0.00 0.00 0.00 23 1007.8
20260904002105 73 243 13.0 28.0 0.00 0.00 0.00 23 1007.8
20260904002004 73 241 15.0 28.0 0.00 0.00 0.00 23 1007.7
20260904001904 73 246 17.0 28.0 0.00 0.00 0.00 22 1007.8
20260904001804 73 247 16.0 28.0 0.00 0.00 0.00 23 1007.8
20260904001705 73 248 14.0 28.0 0.00 0.00 0.00 23 1007.9
20260904001604 73 245 18.0 28.0 0.00 0.00 0.00 23 1007.7
20260904001404 73 236 16.0 28.0 0.00 0.00 0.00 23 1007.7
20260904001305 73 233 14.0 28.0 0.00 0.00 0.00 23 1007.6
20260904001204 73 235 19.0 28.0 0.00 0.00 0.00 22 1007.7
20260904001104 73 241 16.0 26.0 0.00 0.00 0.00 22 1007.7
20260904001004 74 251 17.0 26.0 0.00 0.00 0.00 21 1007.7
20260904000905 74 252 17.0 26.0 0.00 0.00 0.00 22 1007.7
20260904000805 74 251 17.0 26.0 0.00 0.00 0.00 21 1007.8
20260904000704 74 251 17.0 26.0 0.00 0.00 0.00 21 1007.7
20260904000605 74 249 15.0 23.0 0.00 0.00 0.00 21 1007.7
20260904000504 74 246 14.0 23.0 0.00 0.00 0.00 21 1007.7
20260904000405 75 242 16.0 23.0 0.00 0.00 0.00 21 1007.7
20260904000305 75 244 15.0 23.0 0.00 0.00 0.00 20 1007.8
20260904000204 75 243 13.0 23.0 0.00 0.00 0.00 20 1007.8
20260904000104 75 236 16.0 23.0 0.00 0.00 0.00 20 1007.7
20260904000004 75 230 15.0 23.0 0.00 0.00 0.00 20 1007.7
20260903235905 76 231 16.0 23.0 0.00 0.00 0.00 20 1007.7
20260903235804 76 232 14.0 21.0 0.00 0.00 0.00 19 1007.7
20260903235704 76 239 16.0 21.0 0.00 0.00 0.00 19 1007.7
20260903235204 76 242 11.0 21.0 0.00 0.00 0.00 20 1007.7
20260903235105 76 242 10.0 24.0 0.00 0.00 0.00 20 1007.7
20260903235004 76 238 10.0 24.0 0.00 0.00 0.00 19 1007.7
20260903234904 76 235 9.0 24.0 0.00 0.00 0.00 19 1007.7
20260903234805 76 240 11.0 24.0 0.00 0.00 0.00 19 1007.8
20260903234704 76 239 11.0 24.0 0.00 0.00 0.00 20 1007.8
20260903234304 76 243 14.0 27.0 0.00 0.00 0.00 18 1007.7
20260903234204 76 245 14.0 27.0 0.00 0.00 0.00 18 1007.7
20260903234104 76 245 17.0 27.0 0.00 0.00 0.00 18 1007.7
20260903234005 76 256 13.0 27.0 0.00 0.00 0.00 18 1007.7
20260903233904 76 263 11.0 27.0 0.00 0.00 0.00 18 1007.7
20260903233805 76 261 14.0 27.0 0.00 0.00 0.00 18 1007.7
20260903233705 77 261 14.0 27.0 0.00 0.00 0.00 17 1007.8
20260903233604 77 266 12.0 27.0 0.00 0.00 0.00 18 1007.6
20260903233404 77 259 11.0 23.0 0.00 0.00 0.00 18 1007.8
20260903233304 77 259 11.0 23.0 0.00 0.00 0.00 18 1007.7
20260903233204 77 264 15.0 23.0 0.00 0.00 0.00 17 1007.8
20260903233104 77 269 11.0 23.0 0.00 0.00 0.00 18 1007.7
20260903233004 77 260 11.0 23.0 0.00 0.00 0.00 18 1007.8
20260903232905 77 250 16.0 23.0 0.00 0.00 0.00 18 1007.7
20260903232805 77 244 15.0 23.0 0.00 0.00 0.00 17 1007.8
20260903232704 77 236 14.0 23.0 0.00 0.00 0.00 17 1007.8
20260903232605 77 230 17.0 23.0 0.00 0.00 0.00 17 1007.8
20260903232504 77 230 15.0 23.0 0.00 0.00 0.00 17 1007.8
20260903232404 77 233 8.0 23.0 0.00 0.00 0.00 17 1007.7
20260903232306 77 230 11.0 23.0 0.00 0.00 0.00 16 1007.7
20260903231804 77 230 12.0 23.0 0.00 0.00 0.00 16 1007.6
20260903231704 77 230 11.0 23.0 0.00 0.00 0.00 17 1007.6
20260903231604 77 235 14.0 23.0 0.00 0.00 0.00 17 1007.6
20260903231505 77 234 14.0 25.0 0.00 0.00 0.00 17 1007.6
20260903231404 77 242 15.0 25.0 0.00 0.00 0.00 16 1007.5
20260903231304 77 238 15.0 25.0 0.00 0.00 0.00 16 1007.6
20260903231205 77 237 16.0 25.0 0.00 0.00 0.00 16 1007.4
20260903231105 77 237 15.0 25.0 0.00 0.00 0.00 16 1007.6
20260903231004 77 232 12.0 25.0 0.00 0.00 0.00 15 1007.5
20260903230905 78 232 17.0 25.0 0.00 0.00 0.00 14 1007.5
20260903230805 78 228 16.0 25.0 0.00 0.00 0.00 14 1007.5
20260903230704 78 225 14.0 25.0 0.00 0.00 0.00 14 1007.6
20260903230605 78 220 15.0 25.0 0.00 0.00 0.00 14 1007.5
20260903230504 78 224 16.0 25.0 0.00 0.00 0.00 14 1007.5
20260903230404 78 215 17.0 24.0 0.00 0.00 0.00 14 1007.6
20260903230304 78 216 17.0 24.0 0.00 0.00 0.00 15 1007.4
20260903230204 78 216 13.0 23.0 0.00 0.00 0.00 15 1007.5
20260903230004 78 211 15.0 23.0 0.00 0.00 0.00 13 1007.5
20260903225904 78 211 15.0 23.0 0.00 0.00 0.00 14 1007.5
20260903225804 78 213 17.0 23.0 0.00 0.00 0.00 14 1007.5
20260903225704 79 227 12.0 25.0 0.00 0.00 0.00 14 1007.5
20260903225605 78 237 14.0 25.0 0.00 0.00 0.00 14 1007.5
20260903225504 78 240 11.0 25.0 0.00 0.00 0.00 13 1007.4
20260903225404 78 254 11.0 27.0 0.00 0.00 0.00 13 1007.5
20260903225306 78 259 11.0 27.0 0.00 0.00 0.00 13 1007.5
20260903225204 79 268 13.0 27.0 0.00 0.00 0.00 13 1007.5
20260903225104 79 268 15.0 27.0 0.00 0.00 0.00 13 1007.6
20260903225004 79 274 15.0 27.0 0.00 0.00 0.00 13 1007.6
20260903224904 79 277 13.0 27.0 0.00 0.00 0.00 14 1007.5
20260903224304 79 252 14.0 25.0 0.00 0.00 0.00 14 1007.5
20260903224204 78 244 15.0 25.0 0.00 0.00 0.00 14 1007.6
20260903224104 78 250 14.0 27.0 0.00 0.00 0.00 14 1007.6
20260903224005 78 245 13.0 27.0 0.00 0.00 0.00 13 1007.6
20260903223904 78 249 12.0 27.0 0.00 0.00 0.00 14 1007.5
20260903223804 78 256 12.0 27.0 0.00 0.00 0.00 14 1007.6
20260903223704 78 254 11.0 27.0 0.00 0.00 0.00 13 1007.7
20260903223605 78 258 17.0 27.0 0.00 0.00 0.00 12 1007.6
20260903223504 78 260 17.0 27.0 0.00 0.00 0.00 13 1007.6
20260903223405 78 255 17.0 27.0 0.00 0.00 0.00 13 1007.5
20260903223304 78 252 17.0 27.0 0.00 0.00 0.00 13 1007.5
20260903223204 78 265 14.0 34.0 0.00 0.00 0.00 13 1007.6
20260903222605 78 250 17.0 34.0 0.00 0.00 0.00 13 1007.7
20260903222505 78 238 19.0 34.0 0.00 0.00 0.00 13 1007.7
20260903222404 78 230 14.0 34.0 0.00 0.00 0.00 13 1007.7
20260903222306 78 246 16.0 34.0 0.00 0.00 0.00 12 1007.6
20260903222205 79 250 20.0 34.0 0.00 0.00 0.00 12 1007.7
20260903222104 79 248 18.0 27.0 0.00 0.00 0.00 12 1007.6
20260903222005 79 233 15.0 27.0 0.00 0.00 0.00 13 1007.7
20260903221904 79 223 16.0 27.0 0.00 0.00 0.00 12 1007.7
20260903221804 79 226 15.0 27.0 0.00 0.00 0.00 12 1007.7
20260903221705 79 228 16.0 27.0 0.00 0.00 0.00 12 1007.7
20260903221605 79 241 11.0 27.0 0.00 0.00 0.00 12 1007.6
20260903221504 79 241 11.0 27.0 0.00 0.00 0.00 12 1007.6
20260903221404 79 243 12.0 27.0 0.00 0.00 0.00 11 1007.8
20260903221305 79 236 15.0 27.0 0.00 0.00 0.00 11 1007.7
20260903221204 79 231 13.0 24.0 0.00 0.00 0.00 12 1007.8
20260903221104 79 231 13.0 24.0 0.00 0.00 0.00 12 1007.7
20260903221004 79 237 13.0 24.0 0.00 0.00 0.00 12 1007.7
20260903220905 79 242 13.0 24.0 0.00 0.00 0.00 12 1007.7
20260903220804 79 242 15.0 24.0 0.00 0.00 0.00 12 1007.7
20260903220704 79 243 11.0 24.0 0.00 0.00 0.00 12 1007.6
20260903220604 79 233 13.0 24.0 0.00 0.00 0.00 12 1007.8
20260903220504 78 231 11.0 24.0 0.00 0.00 0.00 13 1007.8
20260903220405 78 231 11.0 24.0 0.00 0.00 0.00 13 1007.7
20260903220204 80 228 15.0 24.0 0.00 0.00 0.00 13 1007.8
20260903220104 79 223 17.0 24.0 0.00 0.00 0.00 11 1007.9
20260903220004 79 223 15.0 23.0 0.00 0.00 0.00 11 1007.8
20260903215904 79 223 15.0 23.0 0.00 0.00 0.00 11 1007.9
20260903215804 79 228 13.0 23.0 0.00 0.00 0.00 11 1007.8
20260903215704 79 233 12.0 23.0 0.00 0.00 0.00 12 1007.9
20260903215604 79 236 12.0 23.0 0.00 0.00 0.00 12 1007.9
20260903215505 79 242 12.0 23.0 0.00 0.00 0.00 12 1007.8
20260903215404 79 250 12.0 23.0 0.00 0.00 0.00 12 1007.9
20260903215306 79 250 12.0 23.0 0.00 0.00 0.00 12 1007.8
20260903215204 79 249 11.0 23.0 0.00 0.00 0.00 12 1007.8
20260903215105 79 250 11.0 23.0 0.00 0.00 0.00 11 1007.8
20260903215004 79 250 9.0 23.0 0.00 0.00 0.00 11 1007.8
20260903214904 78 250 13.0 23.0 0.00 0.00 0.00 12 1007.8
20260903214804 80 247 11.0 23.0 0.00 0.00 0.00 12 1007.9
20260903214704 78 242 14.0 23.0 0.00 0.00 0.00 12 1007.8
20260903214605 80 240 14.0 23.0 0.00 0.00 0.00 12 1007.9
20260903214504 80 234 14.0 23.0 0.00 0.00 0.00 12 1007.9
20260903214404 78 228 12.0 23.0 0.00 0.00 0.00 12 1007.8
20260903214305 78 228 12.0 23.0 0.00 0.00 0.00 12 1008.0
20260903214204 78 228 12.0 23.0 0.00 0.00 0.00 12 1007.9
20260903214104 78 228 12.0 24.0 0.00 0.00 0.00 12 1008.0
20260903214005 78 228 12.0 24.0 0.00 0.00 0.00 12 1007.9
20260903213904 78 228 8.0 24.0 0.00 0.00 0.00 12 1007.9
20260903213804 78 229 9.0 24.0 0.00 0.00 0.00 11 1007.9
20260903213705 79 229 17.0 24.0 0.00 0.00 0.00 12 1007.9
20260903213604 79 233 17.0 24.0 0.00 0.00 0.00 12 1007.9
20260903213504 79 239 17.0 24.0 0.00 0.00 0.00 12 1008.0
20260903213405 79 241 17.0 24.0 0.00 0.00 0.00 12 1008.0
20260903213304 79 242 17.0 24.0 0.00 0.00 0.00 12 1008.0
20260903213204 78 240 15.0 24.0 0.00 0.00 0.00 12 1007.9
20260903213104 79 241 15.0 24.0 0.00 0.00 0.00 12 1008.0
20260903213005 79 242 15.0 24.0 0.00 0.00 0.00 12 1007.9
20260903212904 79 242 15.0 24.0 0.00 0.00 0.00 12 1007.9
20260903212804 79 236 15.0 24.0 0.00 0.00 0.00 11 1008.0
20260903212705 79 236 10.0 24.0 0.00 0.00 0.00 11 1008.0
20260903212604 79 233 15.0 24.0 0.00 0.00 0.00 11 1008.0
20260903212504 79 227 14.0 24.0 0.00 0.00 0.00 12 1008.0
20260903212404 79 228 15.0 23.0 0.00 0.00 0.00 11 1008.1
20260903212306 79 231 15.0 23.0 0.00 0.00 0.00 10 1008.0
20260903211205 78 207 15.0 26.0 0.00 0.00 0.00 12 1008.2
20260903211104 78 208 13.0 26.0 0.00 0.00 0.00 12 1008.1
20260903211005 78 217 13.0 26.0 0.00 0.00 0.00 12 1008.3
20260903210904 78 218 13.0 26.0 0.00 0.00 0.00 12 1008.3
20260903210804 78 226 13.0 26.0 0.00 0.00 0.00 12 1008.3
20260903210705 78 230 13.0 26.0 0.00 0.00 0.00 12 1008.2
20260903210605 78 234 17.0 26.0 0.00 0.00 0.00 12 1008.3
20260903210504 78 234 16.0 25.0 0.00 0.00 0.00 12 1008.3
20260903210405 79 230 18.0 24.0 0.00 0.00 0.00 12 1008.3
20260903210304 79 234 16.0 24.0 0.00 0.00 0.00 11 1008.2
20260903210204 79 232 17.0 24.0 0.00 0.00 0.00 11 1008.3
20260903210104 79 234 11.0 21.0 0.00 0.00 0.00 11 1008.3
20260903210004 79 223 12.0 21.0 0.00 0.00 0.00 11 1008.4
20260903205904 79 227 13.0 21.0 0.00 0.00 0.00 10 1008.3
20260903205804 79 224 12.0 21.0 0.00 0.00 0.00 11 1008.4
20260903205705 79 222 14.0 21.0 0.00 0.00 0.00 11 1008.4
20260903205604 79 229 11.0 21.0 0.00 0.00 0.00 12 1008.3
20260903205504 79 235 11.0 21.0 0.00 0.00 0.00 12 1008.4
20260903205404 79 251 15.0 21.0 0.00 0.00 0.00 12 1008.3
20260903205306 79 258 13.0 21.0 0.00 0.00 0.00 11 1008.3
20260903205204 79 254 11.0 21.0 0.00 0.00 0.00 11 1008.4
20260903205104 79 244 8.0 23.0 0.00 0.00 0.00 11 1008.4
20260903205005 79 245 11.0 23.0 0.00 0.00 0.00 11 1008.5
20260903204904 79 246 13.0 23.0 0.00 0.00 0.00 11 1008.6
20260903204804 79 244 11.0 23.0 0.00 0.00 0.00 11 1008.5
20260903204704 79 244 9.0 23.0 0.00 0.00 0.00 11 1008.5
20260903204604 79 243 15.0 23.0 0.00 0.00 0.00 11 1008.6
20260903204505 79 238 15.0 23.0 0.00 0.00 0.00 11 1008.5
20260903204404 79 235 11.0 23.0 0.00 0.00 0.00 11 1008.6
20260903204304 79 233 11.0 23.0 0.00 0.00 0.00 11 1008.6
20260903204205 79 244 13.0 23.0 0.00 0.00 0.00 11 1008.6
20260903204104 79 244 15.0 23.0 0.00 0.00 0.00 11 1008.6
20260903204004 79 235 15.0 21.0 0.00 0.00 0.00 11 1008.6
20260903203904 79 230 15.0 21.0 0.00 0.00 0.00 11 1008.5
20260903203804 79 235 12.0 21.0 0.00 0.00 0.00 11 1008.6
20260903203704 79 238 12.0 21.0 0.00 0.00 0.00 11 1008.6
20260903203604 79 248 12.0 21.0 0.00 0.00 0.00 11 1008.6
20260903203504 79 251 12.0 21.0 0.00 0.00 0.00 11 1008.6
20260903203404 79 242 14.0 21.0 0.00 0.00 0.00 11 1008.7
20260903203205 79 233 15.0 21.0 0.00 0.00 0.00 10 1008.6
20260903202504 79 243 11.0 21.0 0.00 0.00 0.00 11 1008.8
20260903202405 79 250 11.0 21.0 0.00 0.00 0.00 11 1008.8
20260903202306 79 251 13.0 21.0 0.00 0.00 0.00 11 1008.8
20260903202204 79 249 13.0 21.0 0.00 0.00 0.00 11 1008.8
20260903202105 78 242 13.0 22.0 0.00 0.00 0.00 11 1008.9
20260903202004 78 240 15.0 22.0 0.00 0.00 0.00 11 1008.8
20260903201905 78 240 14.0 22.0 0.00 0.00 0.00 11 1008.8
20260903201805 79 240 13.0 22.0 0.00 0.00 0.00 11 1008.8
20260903201704 79 248 13.0 22.0 0.00 0.00 0.00 11 1008.9
20260903201605 79 249 11.0 22.0 0.00 0.00 0.00 11 1008.7
20260903201504 79 244 11.0 22.0 0.00 0.00 0.00 11 1008.8
20260903201404 79 238 15.0 22.0 0.00 0.00 0.00 11 1008.8
20260903201304 79 241 10.0 22.0 0.00 0.00 0.00 11 1008.9
20260903201204 79 246 17.0 22.0 0.00 0.00 0.00 10 1008.9
20260903201104 79 246 15.0 21.0 0.00 0.00 0.00 11 1008.9
20260903201004 79 247 15.0 21.0 0.00 0.00 0.00 11 1008.9
20260903200904 79 253 15.0 21.0 0.00 0.00 0.00 11 1008.9
20260903200804 79 254 12.0 20.0 0.00 0.00 0.00 11 1008.9
20260903200705 79 246 11.0 20.0 0.00 0.00 0.00 11 1008.9
20260903200604 79 240 13.0 19.0 0.00 0.00 0.00 11 1008.9
20260903200504 79 241 14.0 19.0 0.00 0.00 0.00 11 1008.9
20260903200405 78 247 13.0 18.0 0.00 0.00 0.00 12 1008.8
20260903200304 78 241 12.0 18.0 0.00 0.00 0.00 12 1009.0
20260903200204 78 239 8.0 18.0 0.00 0.00 0.00 12 1008.9
20260903200104 78 240 13.0 18.0 0.00 0.00 0.00 11 1009.0
20260903200004 78 240 11.0 17.0 0.00 0.00 0.00 12 1009.1
20260903195904 78 234 12.0 17.0 0.00 0.00 0.00 12 1009.0
20260903195804 78 234 11.0 17.0 0.00 0.00 0.00 12 1009.1
20260903195705 78 234 11.0 18.0 0.00 0.00 0.00 12 1009.0
20260903195604 78 234 9.0 18.0 0.00 0.00 0.00 12 1009.0
20260903195504 77 234 8.0 18.0 0.00 0.00 0.00 12 1009.1
20260903195405 77 229 8.0 18.0 0.00 0.00 0.00 13 1009.1
20260903195306 77 230 10.0 22.0 0.00 0.00 0.00 12 1009.0
20260903195104 77 246 8.0 22.0 0.00 0.00 0.00 13 1009.1
20260903195004 77 248 8.0 22.0 0.00 0.00 0.00 13 1009.0
20260903194904 77 248 9.0 22.0 0.00 0.00 0.00 13 1009.1
20260903194804 77 252 13.0 22.0 0.00 0.00 0.00 13 1009.2
20260903194704 77 251 12.0 22.0 0.00 0.00 0.00 12 1009.1
20260903194204 77 247 10.0 19.0 0.00 0.00 0.00 13 1009.2
20260903194105 77 244 12.0 21.0 0.00 0.00 0.00 13 1009.2
20260903194004 77 241 12.0 21.0 0.00 0.00 0.00 13 1009.2
20260903193904 77 241 10.0 21.0 0.00 0.00 0.00 13 1009.2
20260903193804 77 238 9.0 21.0 0.00 0.00 0.00 12 1009.2
20260903193605 77 246 9.0 21.0 0.00 0.00 0.00 12 1009.3
20260903193504 77 245 5.0 21.0 0.00 0.00 0.00 12 1009.3
20260903193404 77 251 7.0 21.0 0.00 0.00 0.00 12 1009.3
20260903193304 77 259 11.0 21.0 0.00 0.00 0.00 12 1009.3
20260903193205 77 259 13.0 21.0 0.00 0.00 0.00 12 1009.4
20260903193104 77 256 14.0 21.0 0.00 0.00 0.00 13 1009.4
20260903193004 77 261 14.0 21.0 0.00 0.00 0.00 13 1009.4
20260903192905 77 263 11.0 20.0 0.00 0.00 0.00 12 1009.4
20260903192804 77 258 11.0 23.0 0.00 0.00 0.00 12 1009.4
20260903192605 77 252 12.0 23.0 0.00 0.00 0.00 12 1009.5
20260903192504 77 247 11.0 23.0 0.00 0.00 0.00 12 1009.5
20260903192404 77 243 13.0 23.0 0.00 0.00 0.00 12 1009.6
20260903192306 77 236 11.0 23.0 0.00 0.00 0.00 12 1009.4
20260903192205 77 236 10.0 23.0 0.00 0.00 0.00 12 1009.5
20260903192104 77 232 13.0 23.0 0.00 0.00 0.00 12 1009.6
20260903192004 77 230 9.0 23.0 0.00 0.00 0.00 13 1009.4
20260903191905 77 230 10.0 23.0 0.00 0.00 0.00 13 1009.5
20260903191804 77 230 14.0 23.0 0.00 0.00 0.00 13 1009.6
20260903191605 76 234 11.0 23.0 0.00 0.00 0.00 13 1009.6
20260903191504 76 234 11.0 23.0 0.00 0.00 0.00 13 1009.7
20260903191404 76 231 11.0 23.0 0.00 0.00 0.00 12 1009.7
20260903191305 76 229 13.0 23.0 0.00 0.00 0.00 13 1009.7
20260903191204 76 240 13.0 22.0 0.00 0.00 0.00 13 1009.6
20260903191104 77 236 15.0 22.0 0.00 0.00 0.00 12 1009.7
20260903191005 77 232 11.0 21.0 0.00 0.00 0.00 13 1009.8
20260903190904 77 225 13.0 24.0 0.00 0.00 0.00 13 1009.7
20260903190804 76 225 9.0 24.0 0.00 0.00 0.00 13 1009.9
20260903190704 76 225 10.0 24.0 0.00 0.00 0.00 13 1009.8
20260903190605 76 221 14.0 24.0 0.00 0.00 0.00 13 1009.8
20260903190504 76 221 11.0 24.0 0.00 0.00 0.00 13 1009.9
20260903190404 76 221 11.0 24.0 0.00 0.00 0.00 13 1009.9
20260903190304 76 227 13.0 24.0 0.00 0.00 0.00 13 1009.9
20260903190205 76 219 14.0 24.0 0.00 0.00 0.00 13 1009.9
20260903190004 76 226 17.0 24.0 0.00 0.00 0.00 13 1009.9
20260903185905 76 231 15.0 21.0 0.00 0.00 0.00 14 1009.9
20260903185804 76 236 11.0 19.0 0.00 0.00 0.00 13 1010.0
20260903185704 75 232 11.0 22.0 0.00 0.00 0.00 13 1010.0
20260903185605 75 238 12.0 22.0 0.00 0.00 0.00 13 1010.0
20260903185504 75 238 12.0 22.0 0.00 0.00 0.00 13 1010.1
20260903185404 75 238 11.0 22.0 0.00 0.00 0.00 13 1010.1
20260903185306 75 240 11.0 22.0 0.00 0.00 0.00 13 1010.1
20260903185204 75 246 8.0 22.0 0.00 0.00 0.00 13 1010.1
20260903185104 75 246 8.0 22.0 0.00 0.00 0.00 13 1010.1
20260903185004 75 246 10.0 22.0 0.00 0.00 0.00 13 1010.2
20260903184904 75 246 10.0 22.0 0.00 0.00 0.00 13 1010.1
20260903184804 75 250 14.0 22.0 0.00 0.00 0.00 13 1010.0
20260903184704 75 262 14.0 20.0 0.00 0.00 0.00 13 1010.0
20260903184504 75 267 11.0 18.0 0.00 0.00 0.00 14 1010.1
20260903184404 75 266 8.0 18.0 0.00 0.00 0.00 14 1010.1
20260903184305 75 257 10.0 18.0 0.00 0.00 0.00 13 1010.1
20260903184204 75 250 12.0 20.0 0.00 0.00 0.00 14 1010.2
20260903184104 75 249 9.0 20.0 0.00 0.00 0.00 14 1010.2
20260903184004 75 241 11.0 20.0 0.00 0.00 0.00 13 1010.1
20260903183904 75 240 11.0 22.0 0.00 0.00 0.00 13 1010.3
20260903183804 75 232 13.0 22.0 0.00 0.00 0.00 13 1010.3
20260903183704 75 227 11.0 22.0 0.00 0.00 0.00 13 1010.3
20260903183605 74 221 8.0 22.0 0.00 0.00 0.00 14 1010.3
20260903183504 74 219 8.0 22.0 0.00 0.00 0.00 14 1010.3
20260903183404 74 219 10.0 22.0 0.00 0.00 0.00 13 1010.4
20260903183304 74 219 12.0 22.0 0.00 0.00 0.00 13 1010.3
20260903183204 74 219 12.0 22.0 0.00 0.00 0.00 14 1010.4
20260903183104 75 219 11.0 22.0 0.00 0.00 0.00 13 1010.3
20260903183005 75 224 11.0 22.0 0.00 0.00 0.00 13 1010.5
20260903182404 74 227 9.0 22.0 0.00 0.00 0.00 13 1010.3
20260903182306 74 227 11.0 24.0 0.00 0.00 0.00 13 1010.3
20260903182204 74 227 10.0 24.0 0.00 0.00 0.00 13 1010.4
20260903182104 74 230 11.0 24.0 0.00 0.00 0.00 14 1010.5
20260903182004 74 230 7.0 24.0 0.00 0.00 0.00 14 1010.5
20260903181904 74 232 11.0 24.0 0.00 0.00 0.00 14 1010.6
20260903181804 74 228 13.0 24.0 0.00 0.00 0.00 14 1010.5
20260903181704 74 232 14.0 24.0 0.00 0.00 0.00 14 1010.5
20260903181604 74 232 17.0 24.0 0.00 0.00 0.00 13 1010.5
20260903181504 74 232 17.0 24.0 0.00 0.00 0.00 13 1010.5
20260903181405 74 233 14.0 24.0 0.00 0.00 0.00 14 1010.6
20260903181304 74 233 16.0 24.0 0.00 0.00 0.00 14 1010.6
20260903181204 74 233 11.0 22.0 0.00 0.00 0.00 15 1010.5
20260903181105 73 229 8.0 22.0 0.00 0.00 0.00 15 1010.6
20260903181004 73 229 11.0 22.0 0.00 0.00 0.00 14 1010.6
20260903180904 74 234 15.0 22.0 0.00 0.00 0.00 14 1010.6
20260903180805 74 238 11.0 20.0 0.00 0.00 0.00 14 1010.6
20260903180305 74 263 10.0 20.0 0.00 0.00 0.00 13 1010.6
20260903180204 74 267 11.0 21.0 0.00 0.00 0.00 13 1010.6
20260903180104 74 277 8.0 21.0 0.00 0.00 0.00 13 1010.7
20260903180004 74 270 8.0 21.0 0.00 0.00 0.00 13 1010.7
20260903175904 74 260 12.0 21.0 0.00 0.00 0.00 13 1010.7
20260903175804 74 255 11.0 21.0 0.00 0.00 0.00 13 1010.7
20260903175704 74 240 12.0 21.0 0.00 0.00 0.00 13 1010.7
20260903175605 73 241 9.0 21.0 0.00 0.00 0.00 13 1010.7
20260903175504 73 241 10.0 21.0 0.00 0.00 0.00 13 1010.8
20260903175404 73 234 13.0 21.0 0.00 0.00 0.00 13 1010.8
20260903175306 73 237 12.0 21.0 0.00 0.00 0.00 14 1010.7
20260903175204 73 241 14.0 21.0 0.00 0.00 0.00 14 1010.8
20260903175105 73 233 12.0 21.0 0.00 0.00 0.00 14 1010.8
20260903175004 73 236 12.0 21.0 0.00 0.00 0.00 14 1010.7
20260903174904 73 238 14.0 21.0 0.00 0.00 0.00 14 1010.7
20260903174804 73 246 12.0 19.0 0.00 0.00 0.00 14 1010.8
20260903174705 73 251 11.0 19.0 0.00 0.00 0.00 14 1010.6
20260903174604 73 244 11.0 19.0 0.00 0.00 0.00 14 1010.6
20260903174504 73 248 11.0 19.0 0.00 0.00 0.00 14 1010.7
20260903174404 73 247 11.0 20.0 0.00 0.00 0.00 14 1010.6
20260903174304 73 242 11.0 20.0 0.00 0.00 0.00 14 1010.7
20260903174204 73 237 10.0 20.0 0.00 0.00 0.00 14 1010.7
20260903174105 73 238 12.0 20.0 0.00 0.00 0.00 14 1010.7
20260903174004 73 238 9.0 20.0 0.00 0.00 0.00 14 1010.7
20260903173904 73 238 11.0 20.0 0.00 0.00 0.00 14 1010.7
20260903173804 73 236 8.0 20.0 0.00 0.00 0.00 14 1010.7
20260903173705 73 236 10.0 20.0 0.00 0.00 0.00 14 1010.8
20260903173504 73 230 8.0 20.0 0.00 0.00 0.00 14 1010.8
20260903173404 73 231 12.0 20.0 0.00 0.00 0.00 14 1010.9
20260903173304 73 229 7.0 15.0 0.00 0.00 0.00 14 1010.9
20260903173204 73 228 8.0 15.0 0.00 0.00 0.00 14 1010.9
20260903173104 73 228 8.0 15.0 0.00 0.00 0.00 15 1011.0
20260903173004 73 228 8.0 15.0 0.00 0.00 0.00 15 1010.9
20260903172904 73 228 5.0 15.0 0.00 0.00 0.00 14 1010.9
20260903172804 73 224 8.0 15.0 0.00 0.00 0.00 14 1011.0
20260903172705 73 224 5.0 15.0 0.00 0.00 0.00 14 1010.9
20260903172604 73 228 10.0 16.0 0.00 0.00 0.00 15 1010.9
20260903172505 73 242 6.0 16.0 0.00 0.00 0.00 15 1010.9
20260903172404 72 256 8.0 16.0 0.00 0.00 0.00 15 1010.9
20260903172306 72 263 5.0 16.0 0.00 0.00 0.00 16 1010.9
20260903172205 72 273 5.0 19.0 0.00 0.00 0.00 16 1010.8
20260903172104 72 267 6.0 22.0 0.00 0.00 0.00 15 1011.0
20260903172004 73 266 11.0 22.0 0.00 0.00 0.00 14 1011.1
20260903171904 73 268 11.0 22.0 0.00 0.00 0.00 15 1011.1
20260903171804 73 270 8.0 22.0 0.00 0.00 0.00 15 1011.0
20260903171704 72 269 8.0 22.0 0.00 0.00 0.00 15 1011.1
20260903171608 72 256 10.0 22.0 0.00 0.00 0.00 16 1011.1
20260903171504 72 246 10.0 22.0 0.00 0.00 0.00 16 1011.2
20260903171404 72 241 11.0 22.0 0.00 0.00 0.00 16 1011.2
20260903171304 72 235 11.0 22.0 0.00 0.00 0.00 16 1011.2
20260903171204 72 225 13.0 22.0 0.00 0.00 0.00 16 1011.2
20260903171104 71 219 8.0 15.0 0.00 0.00 0.00 16 1011.2
20260903171004 71 213 10.0 14.0 0.00 0.00 0.00 16 1011.2
20260903170905 71 207 5.0 14.0 0.00 0.00 0.00 16 1011.0
20260903170704 71 186 11.0 14.0 0.00 0.00 0.00 16 1011.1
20260903170605 71 171 8.0 12.0 0.00 0.00 0.00 17 1011.0
20260903170504 70 139 5.0 10.0 0.00 0.00 0.00 17 1011.1
20260903170405 70 134 3.0 8.0 0.00 0.00 0.00 18 1011.1
20260903170304 70 138 3.0 8.0 0.00 0.00 0.00 18 1011.2
20260903170205 70 150 3.0 5.0 0.00 0.00 0.00 18 1011.1
20260903170104 69 156 2.0 5.0 0.00 0.00 0.00 17 1011.2
20260903170004 69 0 0.0 5.0 0.00 0.00 0.00 17 1011.2
20260903165904 69 145 1.0 5.0 0.00 0.00 0.00 17 1011.2
20260903165804 69 142 2.0 5.0 0.00 0.00 0.00 17 1011.2
20260903165605 69 145 2.0 5.0 0.00 0.00 0.00 17 1011.2
20260903165504 69 157 2.0 4.0 0.00 0.00 0.00 17 1011.2
20260903165405 69 163 1.0 4.0 0.00 0.00 0.00 17 1011.2
20260903165306 69 194 2.0 6.0 0.00 0.00 0.00 17 1011.2
20260903165104 69 234 2.0 7.0 0.00 0.00 0.00 16 1011.2
20260903165005 69 235 1.0 7.0 0.00 0.00 0.00 16 1011.2
20260903164904 69 0 0.0 7.0 0.00 0.00 0.00 16 1011.3
20260903164805 69 245 1.0 7.0 0.00 0.00 0.00 16 1011.2
20260903164704 69 257 1.0 7.0 0.00 0.00 0.00 16 1011.3
20260903164604 69 261 1.0 8.0 0.00 0.00 0.00 16 1011.3
20260903164504 69 261 1.0 8.0 0.00 0.00 0.00 16 1011.4
20260903164404 69 257 4.0 8.0 0.00 0.00 0.00 16 1011.3
20260903164304 69 260 4.0 8.0 0.00 0.00 0.00 16 1011.3
20260903164204 69 0 0.0 8.0 0.00 0.00 0.00 16 1011.3
20260903164104 69 0 0.0 8.0 0.00 0.00 0.00 16 1011.3
20260903164005 69 0 0.0 8.0 0.00 0.00 0.00 15 1011.3
20260903163904 69 266 4.0 8.0 0.00 0.00 0.00 15 1011.3
20260903163804 69 264 4.0 8.0 0.00 0.00 0.00 15 1011.4
20260903163705 69 261 3.0 8.0 0.00 0.00 0.00 16 1011.5
20260903163604 69 261 2.0 8.0 0.00 0.00 0.00 15 1011.4
20260903163504 69 261 2.0 8.0 0.00 0.00 0.00 15 1011.4
20260903163404 69 262 4.0 8.0 0.00 0.00 0.00 15 1011.4
20260903163304 69 263 4.0 8.0 0.00 0.00 0.00 15 1011.4
20260903163204 70 263 3.0 8.0 0.00 0.00 0.00 15 1011.5
20260903163104 69 263 6.0 8.0 0.00 0.00 0.00 15 1011.4
20260903162604 69 277 3.0 8.0 0.00 0.00 0.00 16 1011.4
20260903162005 69 284 2.0 8.0 0.00 0.00 0.00 17 1011.3
20260903161904 69 281 4.0 9.0 0.00 0.00 0.00 17 1011.5
20260903161805 69 279 2.0 10.0 0.00 0.00 0.00 17 1011.5
20260903161704 69 277 2.0 10.0 0.00 0.00 0.00 16 1011.5
20260903161604 69 277 4.0 10.0 0.00 0.00 0.00 16 1011.5
20260903161504 69 277 4.0 10.0 0.00 0.00 0.00 16 1011.5
20260903161404 69 277 4.0 10.0 0.00 0.00 0.00 16 1011.5
20260903161304 69 271 4.0 10.0 0.00 0.00 0.00 16 1011.5
20260903161204 69 270 3.0 10.0 0.00 0.00 0.00 17 1011.6
20260903161004 69 270 4.0 10.0 0.00 0.00 0.00 17 1011.6
20260903160904 69 269 6.0 10.0 0.00 0.00 0.00 17 1011.6
20260903160804 69 269 5.0 8.0 0.00 0.00 0.00 17 1011.6
20260903160705 69 268 5.0 8.0 0.00 0.00 0.00 17 1011.7
20260903160604 69 273 3.0 5.0 0.00 0.00 0.00 17 1011.6
20260903160504 69 275 2.0 5.0 0.00 0.00 0.00 18 1011.6
20260903160405 69 282 1.0 5.0 0.00 0.00 0.00 18 1011.6
20260903160304 69 0 0.0 5.0 0.00 0.00 0.00 17 1011.7
20260903160204 69 289 2.0 5.0 0.00 0.00 0.00 17 1011.8
20260903160104 69 293 2.0 5.0 0.00 0.00 0.00 18 1011.7
20260903160004 69 0 0.0 5.0 0.00 0.00 0.00 18 1011.7
20260903155904 69 305 2.0 5.0 0.00 0.00 0.00 18 1011.7
20260903155804 69 305 2.0 5.0 0.00 0.00 0.00 18 1011.8
20260903155704 69 303 3.0 5.0 0.00 0.00 0.00 18 1011.8
20260903155604 69 303 3.0 5.0 0.00 0.00 0.00 18 1011.8
20260903155504 69 311 2.0 5.0 0.00 0.00 0.00 18 1011.8
20260903155404 69 309 2.0 5.0 0.00 0.00 0.00 18 1011.8
20260903155306 69 303 4.0 5.0 0.00 0.00 0.00 18 1011.8
20260903155205 69 303 3.0 5.0 0.00 0.00 0.00 18 1011.7
20260903155104 69 299 2.0 5.0 0.00 0.00 0.00 18 1011.8
20260903155004 69 296 2.0 5.0 0.00 0.00 0.00 18 1011.7
20260903154905 69 294 3.0 5.0 0.00 0.00 0.00 17 1011.8
20260903154804 69 303 2.0 4.0 0.00 0.00 0.00 16 1011.8
20260903154704 69 309 2.0 4.0 0.00 0.00 0.00 16 1011.8
20260903154605 69 0 0.0 4.0 0.00 0.00 0.00 16 1011.8
20260903154504 69 0 0.0 4.0 0.00 0.00 0.00 16 1011.8
20260903154404 69 228 1.0 2.0 0.00 0.00 0.00 15 1011.9
20260903154304 69 228 1.0 2.0 0.00 0.00 0.00 15 1012.0
20260903154204 69 0 0.0 2.0 0.00 0.00 0.00 16 1011.8
20260903154104 69 0 0.0 2.0 0.00 0.00 0.00 15 1011.8
20260903154004 69 211 1.0 2.0 0.00 0.00 0.00 15 1011.8
20260903153904 69 0 0.0 3.0 0.00 0.00 0.00 15 1011.8
20260903153804 69 0 0.0 3.0 0.00 0.00 0.00 15 1011.9
20260903153604 70 149 2.0 3.0 0.00 0.00 0.00 15 1011.9
20260903153504 70 0 0.0 3.0 0.00 0.00 0.00 16 1011.9
20260903153404 70 0 0.0 3.0 0.00 0.00 0.00 16 1011.9
20260903153304 70 0 0.0 3.0 0.00 0.00 0.00 16 1011.9
20260903153204 70 0 0.0 4.0 0.00 0.00 0.00 16 1011.9
20260903153104 70 136 1.0 4.0 0.00 0.00 0.00 17 1011.9
20260903153004 70 136 1.0 4.0 0.00 0.00 0.00 17 1011.9
20260903152904 70 135 1.0 4.0 0.00 0.00 0.00 17 1011.9
20260903152804 70 132 2.0 4.0 0.00 0.00 0.00 17 1011.9
20260903152704 70 0 0.0 4.0 0.00 0.00 0.00 17 1012.0
20260903152504 70 0 0.0 4.0 0.00 0.00 0.00 17 1012.0
20260903152404 69 122 1.0 4.0 0.00 0.00 0.00 18 1011.9
20260903152306 69 119 2.0 4.0 0.00 0.00 0.00 18 1012.0
20260903152204 69 113 1.0 4.0 0.00 0.00 0.00 19 1011.9
20260903152104 69 118 1.0 4.0 0.00 0.00 0.00 18 1011.9
20260903152004 69 114 2.0 4.0 0.00 0.00 0.00 18 1011.8
20260903151904 69 0 0.0 4.0 0.00 0.00 0.00 19 1012.0
20260903151804 68 117 2.0 4.0 0.00 0.00 0.00 18 1012.0
20260903151704 68 120 2.0 4.0 0.00 0.00 0.00 18 1012.0
20260903151604 68 0 0.0 4.0 0.00 0.00 0.00 19 1012.0
20260903151504 68 0 0.0 4.0 0.00 0.00 0.00 19 1011.9
20260903151404 68 109 1.0 4.0 0.00 0.00 0.00 19 1012.0
20260903151304 67 112 2.0 4.0 0.00 0.00 0.00 19 1011.9
20260903151204 67 118 2.0 4.0 0.00 0.00 0.00 19 1012.0
20260903151104 67 119 2.0 4.0 0.00 0.00 0.00 20 1011.9
20260903151004 67 125 2.0 4.0 0.00 0.00 0.00 20 1012.1
20260903150904 67 124 2.0 4.0 0.00 0.00 0.00 20 1012.0
20260903150804 67 119 1.0 4.0 0.00 0.00 0.00 21 1012.0
20260903150704 66 118 2.0 4.0 0.00 0.00 0.00 20 1012.0
20260903150604 66 124 2.0 4.0 0.00 0.00 0.00 20 1011.9
20260903150504 66 131 1.0 4.0 0.00 0.00 0.00 20 1012.0
20260903150404 66 0 0.0 3.0 0.00 0.00 0.00 21 1012.1
20260903150304 66 134 1.0 3.0 0.00 0.00 0.00 21 1012.1
20260903150204 66 136 2.0 3.0 0.00 0.00 0.00 21 1012.1
20260903150104 66 140 2.0 3.0 0.00 0.00 0.00 22 1012.0
20260903150004 65 145 2.0 3.0 0.00 0.00 0.00 22 1012.1
20260903145904 65 160 1.0 3.0 0.00 0.00 0.00 22 1012.0
20260903145804 65 0 0.0 3.0 0.00 0.00 0.00 22 1012.1
20260903145704 65 0 0.0 3.0 0.00 0.00 0.00 22 1012.0
20260903145604 65 0 0.0 3.0 0.00 0.00 0.00 22 1012.1
20260903145504 64 155 1.0 3.0 0.00 0.00 0.00 23 1012.1
20260903145404 64 143 2.0 3.0 0.00 0.00 0.00 23 1012.2
20260903145306 64 137 2.0 3.0 0.00 0.00 0.00 23 1012.1
20260903145205 64 0 0.0 3.0 0.00 0.00 0.00 23 1012.2
20260903145104 63 0 0.0 3.0 0.00 0.00 0.00 24 1012.1
20260903145004 63 0 0.0 4.0 0.00 0.00 0.00 24 1012.2
20260903144904 63 195 1.0 4.0 0.00 0.00 0.00 24 1012.2
20260903144805 63 216 1.0 4.0 0.00 0.00 0.00 25 1012.1
20260903144704 62 232 2.0 4.0 0.00 0.00 0.00 25 1012.1
20260903144604 62 240 2.0 4.0 0.00 0.00 0.00 24 1012.1
20260903144505 62 246 2.0 4.0 0.00 0.00 0.00 24 1012.1
20260903144304 62 250 1.0 4.0 0.00 0.00 0.00 25 1012.1
20260903144204 62 0 0.0 4.0 0.00 0.00 0.00 25 1012.0
20260903144104 61 241 1.0 4.0 0.00 0.00 0.00 25 1012.0
20260903144004 61 216 2.0 4.0 0.00 0.00 0.00 26 1012.1
20260903143904 61 195 2.0 4.0 0.00 0.00 0.00 27 1012.1
20260903143804 61 174 2.0 3.0 0.00 0.00 0.00 27 1012.0
20260903143704 61 0 0.0 2.0 0.00 0.00 0.00 27 1012.1
20260903143604 61 0 0.0 2.0 0.00 0.00 0.00 29 1012.1
20260903143504 60 0 0.0 2.0 0.00 0.00 0.00 29 1012.0
20260903143404 60 0 0.0 3.0 0.00 0.00 0.00 29 1012.0
20260903143304 60 124 1.0 3.0 0.00 0.00 0.00 29 1012.0
20260903143204 60 0 0.0 4.0 0.00 0.00 0.00 29 1012.0
20260903143105 59 0 0.0 4.0 0.00 0.00 0.00 29 1012.0
20260903143005 59 0 0.0 6.0 0.00 0.00 0.00 29 1012.0
20260903142904 59 0 0.0 6.0 0.00 0.00 0.00 30 1012.0
20260903142804 59 87 1.0 6.0 0.00 0.00 0.00 30 1012.0
20260903142704 58 0 0.0 6.0 0.00 0.00 0.00 30 1012.0
20260903142604 58 90 1.0 6.0 0.00 0.00 0.00 31 1011.9
20260903142504 58 0 0.0 6.0 0.00 0.00 0.00 31 1012.0
20260903142404 57 92 1.0 6.0 0.00 0.00 0.00 32 1012.0
20260903142306 57 99 1.0 6.0 0.00 0.00 0.00 33 1012.0
20260903142204 57 101 2.0 6.0 0.00 0.00 0.00 33 1011.9
20260903142104 56 106 2.0 6.0 0.00 0.00 0.00 34 1011.9
20260903141505 54 76 1.0 5.0 0.00 0.00 0.00 37 1011.8
20260903141404 54 67 1.0 5.0 0.00 0.00 0.00 36 1011.8
20260903141304 54 69 1.0 5.0 0.00 0.00 0.00 36 1011.8
20260903141204 54 69 2.0 5.0 0.00 0.00 0.00 36 1011.8
20260903141104 53 73 2.0 5.0 0.00 0.00 0.00 35 1011.8
20260903141004 53 74 2.0 5.0 0.00 0.00 0.00 35 1011.8
20260903140804 53 85 2.0 3.0 0.00 0.00 0.00 35 1011.8
20260903140704 53 90 1.0 3.0 0.00 0.00 0.00 35 1011.8
20260903140603 52 90 1.0 3.0 0.00 0.00 0.00 35 1011.9
20260903140504 52 90 2.0 3.0 0.00 0.00 0.00 35 1011.8
20260903140404 52 97 2.0 3.0 0.00 0.00 0.00 36 1011.8
20260903140304 52 102 1.0 3.0 0.00 0.00 0.00 36 1011.8
20260903140204 51 0 0.0 4.0 0.00 0.00 0.00 37 1011.9
20260903140104 51 104 2.0 4.0 0.00 0.00 0.00 37 1011.9
20260903140005 51 103 2.0 4.0 0.00 0.00 0.00 37 1011.8
20260903135904 51 102 2.0 4.0 0.00 0.00 0.00 38 1011.8
20260903135804 51 97 1.0 4.0 0.00 0.00 0.00 38 1011.8
20260903135704 51 0 0.0 4.0 0.00 0.00 0.00 38 1011.8
20260903135604 51 0 0.0 4.0 0.00 0.00 0.00 38 1011.9
20260903135504 50 0 0.0 4.0 0.00 0.00 0.00 37 1011.8
20260903135404 50 96 1.0 4.0 0.00 0.00 0.00 37 1011.8
20260903135306 50 93 2.0 4.0 0.00 0.00 0.00 37 1011.9
20260903135204 50 92 2.0 4.0 0.00 0.00 0.00 37 1011.8
20260903135104 50 95 2.0 4.0 0.00 0.00 0.00 37 1011.8
20260903135004 50 96 2.0 3.0 0.00 0.00 0.00 37 1011.8
20260903134904 50 96 2.0 3.0 0.00 0.00 0.00 37 1011.7
20260903134803 50 96 2.0 3.0 0.00 0.00 0.00 37 1011.7
20260903134704 50 96 2.0 4.0 0.00 0.00 0.00 37 1011.9
20260903134604 50 93 2.0 4.0 0.00 0.00 0.00 37 1011.8
20260903134504 50 94 2.0 4.0 0.00 0.00 0.00 37 1011.8
20260903134404 50 97 2.0 4.0 0.00 0.00 0.00 37 1011.8
20260903134304 50 98 2.0 4.0 0.00 0.00 0.00 38 1011.7
20260903134204 50 99 2.0 4.0 0.00 0.00 0.00 38 1011.7
20260903134105 50 99 2.0 4.0 0.00 0.00 0.00 38 1011.8
20260903133504 49 103 1.0 7.0 0.00 0.00 0.00 38 1011.8
20260903133004 49 88 1.0 7.0 0.00 0.00 0.00 38 1011.7
20260903132904 49 84 2.0 7.0 0.00 0.00 0.00 38 1011.7
20260903132804 49 83 3.0 7.0 0.00 0.00 0.00 38 1011.7
20260903132704 49 79 4.0 7.0 0.00 0.00 0.00 38 1011.8
20260903132604 49 78 5.0 7.0 0.00 0.00 0.00 38 1011.6
20260903132505 49 78 3.0 7.0 0.00 0.00 0.00 38 1011.7
20260903132104 49 58 3.0 4.0 0.00 0.00 0.00 37 1011.7
20260903132004 49 57 3.0 4.0 0.00 0.00 0.00 37 1011.7
20260903131904 49 64 2.0 4.0 0.00 0.00 0.00 36 1011.7
20260903131804 49 69 2.0 4.0 0.00 0.00 0.00 36 1011.6
20260903131703 50 71 2.0 4.0 0.00 0.00 0.00 36 1011.7
20260903131604 50 74 2.0 4.0 0.00 0.00 0.00 36 1011.7
20260903131504 50 77 2.0 4.0 0.00 0.00 0.00 36 1011.6
20260903131404 50 81 1.0 4.0 0.00 0.00 0.00 36 1011.7
20260903131303 50 81 2.0 4.0 0.00 0.00 0.00 36 1011.7
20260903131204 50 78 2.0 4.0 0.00 0.00 0.00 36 1011.7
20260903131104 50 80 2.0 4.0 0.00 0.00 0.00 36 1011.7
20260903131004 50 79 3.0 4.0 0.00 0.00 0.00 36 1011.8
20260903130903 50 78 2.0 4.0 0.00 0.00 0.00 36 1011.8
20260903130804 50 78 2.0 4.0 0.00 0.00 0.00 36 1011.8
20260903130704 50 79 1.0 4.0 0.00 0.00 0.00 36 1011.8
20260903130604 50 79 2.0 4.0 0.00 0.00 0.00 36 1011.8
20260903130503 50 79 2.0 4.0 0.00 0.00 0.00 36 1011.8
20260903130404 50 79 1.0 4.0 0.00 0.00 0.00 36 1011.8
20260903130304 50 86 2.0 4.0 0.00 0.00 0.00 37 1011.8
20260903130204 50 90 1.0 4.0 0.00 0.00 0.00 37 1011.7
20260903130104 50 90 1.0 4.0 0.00 0.00 0.00 37 1011.8
20260903130004 50 89 1.0 4.0 0.00 0.00 0.00 37 1011.7
20260903125904 50 88 2.0 4.0 0.00 0.00 0.00 37 1011.7
20260903125804 50 88 2.0 4.0 0.00 0.00 0.00 38 1011.7
20260903125704 50 88 2.0 4.0 0.00 0.00 0.00 38 1011.7
20260903125604 50 89 2.0 4.0 0.00 0.00 0.00 38 1011.7
20260903125504 50 90 2.0 4.0 0.00 0.00 0.00 38 1011.7
20260903125004 51 92 1.0 4.0 0.00 0.00 0.00 37 1011.8
20260903124504 51 84 2.0 4.0 0.00 0.00 0.00 36 1011.8
20260903124404 51 87 2.0 4.0 0.00 0.00 0.00 36 1011.7
20260903124304 51 0 0.0 4.0 0.00 0.00 0.00 36 1011.7
20260903124204 51 0 0.0 4.0 0.00 0.00 0.00 36 1011.8
20260903124104 51 86 1.0 4.0 0.00 0.00 0.00 36 1011.8
20260903124004 51 90 2.0 4.0 0.00 0.00 0.00 36 1011.6
20260903123904 51 0 0.0 4.0 0.00 0.00 0.00 36 1011.7
20260903123804 51 0 0.0 4.0 0.00 0.00 0.00 36 1011.8
20260903123704 51 0 0.0 4.0 0.00 0.00 0.00 36 1011.8
20260903123603 52 69 1.0 4.0 0.00 0.00 0.00 36 1011.6
20260903123504 52 0 0.0 4.0 0.00 0.00 0.00 36 1011.7
20260903123404 52 66 1.0 4.0 0.00 0.00 0.00 36 1011.7